GEFSSGP_con_probscp_078.txt.gz
Probability
0 0 0 0 0 0 0 0 0 0 1 1 1 0 0 1 0 0 0 1 1 1 1 1 1 1 0 0 0 0 0 0 0 0 0 0 0 0 0 0 0 0 0 0 0 0 0 0 0
0 0 0 0 0 0 0 0 0 0 0 0 0 0 0 1 0 0 0 0 1 2 2 1 0 0 0 0 0 0 0 0 0 0 0 0 0 0 0 0 0 0 0 0 0 0 0 0 0
0 0 0 0 0 0 0 0 0 0 0 0 0 0 0 0 0 0 0 0 1 2 3 1 1 0 0 0 0 0 0 0 0 0 0 0 0 0 0 0 0 0 0 0 0 0 0 0 0
0 0 0 0 0 0 0 0 0 0 0 1 1 1 1 1 0 0 0 0 1 3 3 3 2 1 1 0 0 0 0 0 0 0 0 0 0 0 0 0 0 0 0 0 0 0 0 0 0
0 0 0 0 0 0 0 0 1 1 1 2 2 1 2 3 1 1 1 1 2 4 5 4 3 3 3 1 1 0 0 0 0 0 0 0 0 0 0 0 0 0 0 0 0 0 0 0 0
0 0 0 0 0 0 0 0 1 1 1 1 1 1 2 3 3 2 3 3 4 6 6 5 4 4 4 3 2 1 0 0 0 0 0 0 1 1 1 1 1 0 0 0 0 0 0 0 0
0 0 0 0 0 0 0 0 0 0 0 0 0 0 1 3 4 4 5 6 6 6 5 3 3 3 4 5 4 4 3 2 1 0 0 0 1 2 2 2 1 0 0 0 0 0 0 0 0
0 0 0 0 0 0 0 0 0 0 1 1 0 0 1 4 5 6 7 8 6 4 2 1 2 3 4 6 7 7 6 4 2 0 0 0 1 1 1 1 1 0 0 0 0 0 0 0 0
0 0 0 0 0 1 2 3 2 2 2 2 2 4 7 9 9 6 6 5 3 1 1 1 2 3 4 5 6 5 4 3 1 0 0 0 0 0 0 0 1 1 0 0 1 1 0 0 0
0 0 0 0 0 2 5 6 5 5 5 4 6 11 17 18 11 6 3 1 0 0 1 1 2 3 3 3 2 1 1 0 0 0 0 0 0 0 0 0 1 1 0 0 0 1 1 0 0
0 0 0 0 0 2 5 7 8 7 5 4 8 16 24 22 13 6 3 0 0 1 1 1 2 2 1 1 0 0 0 0 0 0 0 0 0 0 0 0 1 1 0 0 0 0 0 0 0
0 0 0 0 0 1 3 5 6 4 4 4 8 15 22 20 12 5 3 2 2 3 2 1 1 1 0 0 0 0 0 0 0 0 0 0 0 0 0 0 0 0 0 0 0 0 0 0 0
0 0 0 0 0 0 1 2 2 1 2 5 8 13 17 16 11 6 5 4 4 3 1 0 0 0 0 0 0 0 0 0 0 0 0 0 0 0 0 0 0 0 0 0 0 0 0 0 0
0 0 0 0 0 0 0 0 0 1 4 7 8 10 13 14 11 8 7 6 4 2 1 0 0 0 0 0 0 0 0 0 0 0 0 0 0 0 0 0 0 0 0 0 0 0 0 0 0
0 0 0 0 0 0 0 0 0 2 5 6 7 9 11 11 9 8 8 7 3 1 0 0 0 0 0 0 0 0 0 0 0 0 0 0 0 0 0 0 0 0 0 0 0 0 0 0 0
0 0 0 0 0 0 0 0 0 2 3 4 4 6 7 6 5 6 8 7 3 0 0 0 0 0 0 0 0 0 0 0 0 0 0 0 0 0 0 0 0 0 0 0 0 0 0 0 0
0 0 0 0 0 0 0 0 0 1 1 1 1 2 3 3 3 6 8 8 4 1 0 0 0 0 0 0 0 0 0 0 0 0 0 0 0 0 0 0 0 0 0 0 0 0 0 0 0
0 0 0 0 0 0 0 0 1 1 1 0 0 1 2 3 4 7 11 10 6 2 1 0 0 0 0 0 0 0 0 0 0 0 0 0 0 0 0 0 0 0 0 0 0 0 0 0 0
0 0 0 0 0 0 0 0 1 2 1 0 0 0 2 3 4 6 10 11 7 3 2 1 0 0 0 0 0 0 0 0 0 0 0 0 0 0 0 0 0 0 0 0 0 0 0 0 0
0 0 0 0 0 0 0 0 0 1 1 0 0 0 1 3 3 4 6 7 5 2 1 0 0 0 0 0 0 0 0 0 0 0 0 0 0 0 0 0 0 0 0 0 0 0 0 0 0
0 0 0 0 0 0 0 0 0 0 0 0 0 0 1 3 4 3 3 3 3 1 0 0 0 0 0 0 0 0 0 0 0 0 0 0 0 0 0 0 0 0 0 0 0 0 0 0 0
0 0 0 0 0 0 0 0 0 0 0 0 0 0 1 3 5 4 2 1 1 1 0 0 0 0 0 0 0 0 0 0 0 0 0 0 0 0 0 0 0 0 0 0 0 0 0 0 0
0 0 0 0 0 0 0 0 0 0 0 0 0 0 1 3 6 5 3 1 0 0 0 0 0 0 0 0 0 0 0 0 0 0 0 0 0 0 0 0 0 0 0 0 0 0 0 0 0
0 0 0 0 0 0 0 0 0 0 0 0 0 0 1 3 6 6 2 0 0 0 0 0 0 0 0 0 0 0 0 0 0 0 0 0 0 0 0 0 0 0 0 0 0 0 0 0 0
0 0 0 0 0 0 0 0 0 0 0 0 0 0 0 2 4 3 1 0 0 0 0 0 0 0 0 0 0 0 0 0 0 0 0 0 0 0 0 0 0 0 0 0 0 0 0 0 0
0 0 0 0 0 0 0 0 0 0 0 0 0 0 0 0 1 1 0 0 0 0 0 0 0 0 0 0 0 0 0 0 0 0 0 0 0 0 0 0 0 0 0 0 0 0 0 0 0
0 0 0 0 0 0 0 0 0 0 0 0 0 0 0 0 0 0 0 0 0 0 0 0 0 0 0 0 0 0 0 0 0 0 0 0 0 0 0 0 0 0 0 0 0 0 0 0 0
0 0 0 0 0 0 0 0 0 0 0 0 0 0 0 0 0 0 0 0 0 0 0 0 0 0 0 0 0 0 0 0 0 0 0 0 0 0 0 0 0 0 0 0 0 0 0 0 0
0 0 0 0 0 0 0 0 0 0 0 0 0 0 0 0 0 0 0 0 0 0 0 0 0 0 0 0 0 0 0 0 0 0 0 0 0 0 0 0 0 0 0 0 0 0 0 0 0
0 0 0 0 0 0 0 0 0 0 0 0 0 0 0 0 0 0 0 0 0 0 0 0 0 0 0 0 1 1 1 0 0 0 0 0 0 0 0 0 0 0 0 0 0 0 0 0 0

GEFSSGP_con_probscp_084.txt.gz
Probability
0 0 0 0 0 0 0 0 0 0 0 0 0 0 0 1 1 0 0 0 0 0 0 0 0 0 0 1 2 2 2 1 0 0 0 0 0 0 0 0 0 0 0 0 0 0 0 0 0
0 0 0 0 0 0 0 0 0 0 0 0 0 1 1 2 2 1 0 0 0 0 0 0 0 0 0 0 1 1 1 0 0 0 0 0 0 0 0 0 0 0 0 0 0 0 0 0 0
0 0 0 0 0 0 0 0 0 0 0 0 1 1 3 3 3 2 1 0 0 0 0 0 0 0 0 0 0 0 0 0 0 0 0 0 0 0 0 0 0 0 0 0 0 0 0 0 0
0 0 0 0 0 0 0 0 0 0 0 1 1 1 3 4 3 2 2 1 0 0 0 0 0 0 0 0 0 0 0 0 0 0 0 0 0 0 0 0 0 0 0 0 0 0 0 0 0
0 0 0 0 0 0 0 0 0 0 0 0 0 1 4 7 6 4 3 1 0 0 0 0 0 0 0 0 0 0 0 0 0 0 0 0 0 0 0 0 0 0 0 0 0 0 0 0 0
0 0 0 0 0 0 0 0 0 0 0 0 0 0 4 9 9 6 3 1 0 0 0 0 0 0 0 0 0 0 0 0 0 0 0 0 0 0 0 0 0 0 0 0 0 0 0 0 0
0 0 0 0 0 0 0 0 0 0 0 1 1 1 5 9 9 6 4 1 0 0 0 0 0 0 0 0 0 0 0 0 0 0 0 0 0 0 0 0 0 0 0 0 0 0 0 0 0
0 0 0 0 0 0 0 0 0 0 0 2 3 3 8 13 11 7 5 4 2 0 0 0 0 0 0 0 0 0 0 0 0 0 0 0 0 0 0 0 0 0 0 0 0 0 0 0 0
0 0 0 0 0 0 0 0 0 0 0 2 4 7 15 21 18 11 8 6 4 3 1 1 1 0 0 0 0 0 0 0 0 0 0 0 0 0 0 0 0 0 0 0 0 0 0 0 0
0 0 0 0 0 0 0 0 0 0 0 1 5 11 20 25 20 14 9 5 5 5 4 2 1 0 0 0 0 0 0 0 0 0 0 0 0 0 0 0 0 0 0 0 0 0 0 0 0
0 0 0 0 0 0 0 0 0 0 0 2 6 13 20 21 16 12 9 5 4 5 5 3 2 1 0 0 0 0 0 0 0 0 0 0 0 0 1 1 0 0 0 0 0 1 1 1 0
0 0 0 0 0 0 0 0 0 0 1 4 9 14 20 19 14 12 11 9 7 7 6 5 4 3 3 2 1 0 0 0 0 0 0 0 0 0 1 1 0 0 0 0 0 2 2 2 1
0 0 0 0 0 0 0 0 0 0 1 5 10 16 19 18 16 15 15 13 11 10 9 9 9 8 7 6 3 1 0 0 0 0 0 0 0 0 1 1 0 0 0 0 0 1 1 1 0
0 0 0 0 0 0 0 0 0 0 1 4 8 12 15 15 16 18 18 16 16 14 14 14 14 12 9 6 4 2 1 0 0 0 0 0 0 0 0 0 0 0 0 0 0 0 0 0 0
0 0 0 0 0 0 0 0 1 2 2 3 5 9 11 12 14 17 18 20 22 20 18 17 16 13 9 6 4 3 2 0 0 0 0 0 0 0 0 0 0 0 0 0 0 0 0 0 0
0 0 0 0 0 0 0 0 2 3 2 2 5 8 9 9 11 13 16 22 26 25 21 17 14 12 9 6 4 3 1 0 0 0 0 0 0 0 0 0 0 0 0 0 0 0 0 0 0
0 0 0 0 0 0 0 0 1 1 1 2 5 7 6 7 8 10 15 22 26 25 22 18 15 13 10 7 4 3 1 0 0 0 0 0 0 0 0 0 0 0 0 0 0 0 0 0 0
0 0 0 0 0 0 0 1 1 1 1 2 3 4 6 7 8 10 15 19 24 25 24 20 17 16 12 7 5 3 1 0 0 0 0 0 0 0 0 0 0 0 0 0 0 0 0 0 0
0 0 0 0 0 0 0 1 2 2 1 1 1 3 6 7 8 12 16 18 22 25 25 22 19 16 12 7 4 2 1 0 0 0 0 0 0 0 0 0 0 0 0 0 0 0 0 0 0
0 0 0 0 0 0 0 0 1 2 2 0 0 2 4 5 6 10 14 16 18 20 22 23 20 14 9 5 3 1 0 0 0 0 0 0 0 0 0 0 0 0 0 0 0 0 0 0 0
0 0 0 0 0 0 0 0 1 2 1 0 0 2 4 4 5 6 10 13 14 13 16 18 16 11 7 4 1 0 0 0 0 0 0 0 0 0 0 0 0 0 0 0 0 0 0 0 0
0 0 0 0 0 0 0 0 0 1 1 0 0 1 3 5 5 4 6 10 11 9 9 10 9 8 5 3 1 0 0 0 0 0 0 0 0 0 0 0 0 0 0 0 0 0 0 0 0
0 0 0 0 0 0 0 0 0 0 0 0 0 0 2 4 4 3 4 8 9 7 6 6 6 5 3 1 0 0 0 0 0 0 0 0 0 0 0 0 0 0 0 0 0 0 0 0 0
0 0 0 0 0 0 0 0 0 0 0 0 0 0 1 3 4 4 4 5 7 7 6 5 7 5 3 1 1 1 0 0 0 0 0 0 0 0 0 0 0 0 0 0 0 0 0 0 0
0 0 0 0 0 0 0 0 0 0 0 0 0 0 1 2 4 4 4 4 6 6 5 5 7 7 4 2 2 2 1 0 0 0 0 0 0 0 0 0 0 0 0 0 0 0 0 0 0
0 0 0 0 0 0 0 0 0 0 0 0 0 0 1 2 4 4 3 3 5 6 4 4 7 7 5 3 3 3 2 1 0 0 0 0 0 0 0 0 0 0 0 0 0 0 0 0 0
0 0 0 0 0 0 0 0 0 0 0 0 0 0 1 2 4 4 2 2 3 5 4 4 6 6 4 3 3 3 3 2 0 0 0 0 0 0 0 0 0 0 0 0 0 0 0 0 0
0 0 0 0 0 0 0 0 0 0 0 0 0 0 0 1 3 4 2 1 1 3 3 3 4 5 5 5 5 5 6 4 2 1 0 0 0 0 0 0 0 0 0 0 0 0 0 0 0
0 0 0 0 0 0 0 0 0 0 0 0 0 0 0 0 1 2 2 1 1 3 3 3 3 5 7 10 12 12 12 10 6 3 1 1 1 0 0 0 0 0 0 0 0 0 0 0 0
0 0 0 0 0 0 0 0 0 0 0 0 0 0 0 0 0 1 1 0 1 4 5 4 3 5 9 14 19 20 19 15 9 4 1 2 2 1 0 0 0 0 0 0 0 0 0 0 0

GEFSSGP_con_probscp_090.txt.gz
Probability
0 0 0 0 1 1 1 0 1 2 2 1 0 0 2 4 3 1 4 20 32 25 11 9 9 6 3 1 0 0 0 0 0 0 0 0 0 0 0 0 0 0 0 0 0 0 0 0 0
0 0 0 0 0 0 0 0 2 5 4 1 0 1 4 7 4 1 5 18 25 17 7 7 8 6 3 1 0 0 0 0 0 0 0 0 0 0 0 0 0 0 0 0 0 0 0 0 0
0 0 0 0 0 0 0 0 3 5 4 1 1 4 8 8 6 2 4 13 18 13 6 6 7 4 2 1 0 0 0 0 0 0 0 0 0 0 0 0 0 0 0 0 0 0 0 0 0
0 0 0 0 0 0 0 0 2 3 3 2 5 11 12 10 6 3 4 9 16 15 8 6 5 3 1 0 0 0 0 0 0 0 0 0 0 0 0 0 0 0 0 0 0 0 0 0 0
0 0 0 1 0 0 0 0 1 2 1 3 11 18 18 12 7 4 4 7 15 17 11 6 5 3 1 0 0 0 0 0 0 0 0 0 0 0 0 0 0 0 0 0 0 0 0 0 0
0 0 0 0 0 0 0 0 0 1 1 4 12 20 19 13 9 6 4 5 12 18 13 6 4 3 2 1 0 0 0 0 0 0 0 0 0 0 0 0 0 0 0 0 0 0 0 0 0
0 0 0 0 0 0 0 0 0 0 2 4 11 17 17 14 12 9 6 7 15 20 15 5 2 2 2 1 0 0 0 0 0 0 0 0 0 0 0 0 0 0 0 0 0 0 0 0 0
0 0 0 0 0 0 0 0 0 1 2 4 9 15 18 18 16 12 11 16 22 23 15 4 1 1 1 0 0 0 0 0 0 0 0 0 0 0 0 0 0 0 0 0 0 0 0 0 0
0 0 0 0 0 0 0 0 0 1 2 6 14 23 27 24 19 17 19 25 29 26 16 7 3 1 0 0 0 0 0 0 0 0 0 0 0 0 0 0 0 0 0 0 0 0 0 0 0
0 0 0 0 0 1 0 0 0 1 4 14 27 39 38 29 23 21 24 30 33 29 20 15 10 5 3 2 1 0 0 0 0 0 0 0 0 0 0 0 0 0 0 0 0 0 0 0 0
0 0 0 0 0 0 0 0 0 1 7 21 38 49 46 35 27 24 24 30 36 33 26 24 21 16 13 8 2 0 0 0 0 0 0 0 0 0 0 0 0 0 0 0 0 0 0 0 1
0 0 0 0 0 0 0 0 1 4 9 21 37 48 48 40 34 30 26 32 42 42 36 35 37 38 32 19 7 2 1 0 0 0 0 0 0 0 0 0 0 0 0 0 0 0 0 0 1
0 0 0 0 0 0 0 0 3 7 11 17 30 43 47 44 41 38 36 41 50 52 49 50 54 55 46 31 15 7 4 2 0 0 0 0 0 0 0 0 0 0 0 0 0 0 0 0 1
0 0 0 0 0 0 0 1 5 10 12 15 24 36 44 46 46 45 44 48 56 59 58 60 60 54 45 34 21 11 6 4 1 0 0 0 0 0 0 0 0 0 0 0 0 0 0 0 0
0 0 0 0 0 0 0 3 9 14 15 16 22 32 40 44 45 46 45 50 58 61 60 58 53 44 38 31 21 12 6 4 2 1 0 0 0 0 0 0 0 0 0 0 0 0 0 0 0
0 0 0 0 0 0 0 5 14 20 21 20 23 30 38 40 40 42 45 50 56 59 57 52 44 38 34 30 22 13 8 5 3 1 0 0 0 0 0 0 0 0 0 0 0 0 0 0 0
0 0 0 0 0 0 0 6 18 26 25 23 26 31 36 36 35 39 46 50 52 54 52 47 41 37 34 30 24 17 12 7 3 1 1 0 0 0 0 0 0 0 0 0 0 0 0 0 0
0 0 0 1 0 0 0 6 18 24 23 24 29 34 36 32 31 37 44 47 49 50 49 45 41 38 34 29 25 20 14 7 4 3 2 1 0 0 0 0 0 0 0 0 0 0 0 0 0
0 0 0 0 0 0 1 5 13 18 17 21 31 37 36 30 29 34 40 43 47 50 48 44 39 35 31 25 21 18 12 6 3 3 2 1 0 0 0 0 0 0 0 0 0 0 0 0 0
0 0 0 0 0 0 1 4 8 11 11 15 25 32 32 30 30 34 37 39 44 47 46 42 36 31 26 21 16 12 8 5 3 3 2 1 0 0 0 0 0 0 0 0 0 0 0 0 0
0 0 0 0 0 0 1 3 6 8 8 10 15 23 27 29 31 33 34 35 37 39 39 36 33 30 24 17 12 8 5 4 3 3 1 0 0 0 0 0 0 0 0 0 0 0 0 0 0
0 0 0 0 0 0 1 2 5 7 6 6 9 15 22 26 27 29 30 30 30 31 31 31 31 29 23 16 10 6 4 3 3 2 1 0 0 0 0 0 0 0 0 0 0 0 0 0 0
0 0 0 0 0 0 0 1 4 5 4 4 6 10 17 21 23 26 27 26 25 26 27 28 30 28 23 15 9 6 4 3 3 3 2 1 0 0 0 0 0 0 0 0 0 0 0 0 0
0 0 0 1 1 1 1 1 2 3 2 2 4 6 11 14 19 24 25 24 23 24 25 26 26 26 21 14 8 5 4 4 5 5 4 1 0 0 0 0 0 0 0 0 0 0 0 0 0
0 0 0 0 1 1 1 0 1 2 1 1 3 4 6 9 17 24 25 23 23 23 23 23 23 23 19 14 10 6 5 6 7 7 5 2 0 0 1 1 0 0 0 0 0 0 0 0 0
0 0 0 0 0 0 0 0 2 2 1 0 1 2 3 7 14 23 26 24 23 23 24 25 25 23 19 16 14 11 9 8 7 7 6 2 0 2 4 3 0 0 0 0 0 0 0 0 0
0 0 0 0 0 0 0 1 2 2 1 0 0 1 3 5 9 18 24 25 23 23 25 29 31 29 23 19 17 14 13 11 10 10 8 4 2 5 7 5 1 0 0 0 0 0 0 0 0
0 0 0 0 0 0 0 1 1 1 0 0 0 1 2 3 5 13 22 25 23 21 23 30 35 35 29 23 20 18 17 18 18 17 14 9 8 9 10 8 2 0 0 0 0 0 0 0 0
0 0 0 0 0 0 0 0 1 0 0 0 0 1 3 4 5 10 18 23 22 20 23 29 34 36 31 26 25 25 27 29 29 27 24 18 16 18 16 12 6 1 0 0 1 1 0 0 0
0 0 0 0 0 0 0 0 1 0 0 0 1 2 3 5 7 9 15 20 21 20 24 29 33 34 32 29 29 31 35 39 39 36 33 27 23 22 21 17 10 2 0 1 2 2 1 0 0

GEFSSGP_con_probscp_096.txt.gz
Probability
3 1 0 0 0 0 0 0 0 0 2 6 9 10 8 3 1 2 3 7 18 25 19 15 16 13 6 1 0 0 0 0 0 0 0 0 0 0 0 0 0 0 0 0 0 0 0 0 0
1 0 0 0 0 0 0 0 0 1 6 13 17 14 9 4 3 5 7 13 25 31 25 18 18 14 8 3 1 0 0 0 0 0 0 0 0 0 0 0 0 0 0 0 0 0 0 0 0
0 0 0 0 0 0 0 0 0 2 9 20 23 18 12 6 5 9 14 23 32 37 31 25 21 15 8 5 2 1 0 0 0 0 0 0 0 0 0 0 0 0 0 0 0 0 0 0 0
0 0 0 0 0 0 0 0 1 4 11 22 27 24 17 11 9 14 22 29 37 40 35 28 23 15 8 5 3 1 0 0 0 0 0 0 0 0 0 0 0 0 0 0 0 0 0 0 0
0 0 0 0 0 0 0 1 5 12 19 26 31 29 21 16 18 23 27 31 38 42 37 30 24 16 9 6 4 1 0 0 0 0 0 0 0 0 0 0 0 0 0 0 0 0 0 0 0
0 0 0 0 0 0 1 3 10 20 28 32 33 27 19 19 25 29 28 29 37 42 38 29 23 17 10 6 3 1 0 0 0 0 0 0 0 0 0 0 0 0 0 0 0 0 0 0 0
0 0 0 0 0 0 1 3 9 18 28 33 30 21 17 21 28 28 25 27 35 40 36 26 19 14 9 5 2 1 0 0 0 0 0 0 0 0 0 0 0 0 0 0 0 0 0 0 0
0 0 0 0 0 0 1 2 6 13 22 28 27 21 21 29 34 31 27 26 29 32 29 22 15 11 8 4 1 0 0 0 0 0 0 0 0 0 0 0 0 0 0 0 0 0 0 0 0
0 0 0 0 0 0 0 1 6 16 25 29 29 28 33 41 44 39 33 27 24 22 19 15 10 8 7 3 1 0 0 0 0 0 0 0 0 0 0 0 0 0 0 0 0 0 0 0 0
0 0 0 0 0 0 0 1 8 21 34 38 38 39 44 48 48 44 36 27 20 13 10 8 6 5 4 2 1 1 0 0 0 0 0 0 0 0 0 0 0 0 0 0 0 0 0 0 0
0 0 0 0 0 0 0 2 9 23 36 45 47 46 47 46 44 41 35 25 15 9 6 5 4 2 1 1 1 1 0 0 0 0 0 0 0 0 0 0 0 0 0 0 0 0 0 0 0
0 0 0 0 0 0 0 3 10 21 35 47 51 47 43 41 38 36 31 22 14 9 7 5 3 1 0 0 1 1 0 0 0 0 0 0 0 0 0 0 0 0 0 0 0 0 0 0 0
0 0 0 0 0 0 1 3 11 23 38 50 51 45 39 36 35 31 27 23 17 13 10 7 3 1 0 0 0 0 0 0 0 0 0 0 0 0 0 0 0 0 0 0 0 0 0 0 0
0 0 0 0 0 0 1 4 12 26 42 51 49 42 37 35 33 31 28 25 21 17 13 10 7 4 2 1 0 0 0 0 0 0 0 0 0 0 0 0 0 0 0 0 0 0 0 0 0
0 0 0 0 0 0 1 4 12 26 40 48 45 40 36 34 34 33 30 26 23 21 17 14 12 10 6 2 0 0 0 0 0 0 0 0 0 0 0 0 0 0 0 0 0 0 0 0 0
0 0 0 0 0 0 0 3 10 23 36 42 41 38 35 34 33 33 31 29 27 25 22 18 16 14 9 4 1 0 0 0 0 0 0 0 0 0 0 0 0 0 0 0 0 0 0 0 0
0 0 0 0 0 0 0 3 9 20 32 37 35 34 35 34 32 31 32 33 32 29 25 21 18 16 12 8 4 1 0 0 0 0 0 0 0 0 0 0 0 0 0 0 0 0 0 0 0
0 0 0 0 0 0 1 4 9 16 24 28 28 30 33 34 31 28 29 32 33 30 26 22 18 17 15 11 6 3 1 0 0 0 0 0 0 0 0 0 0 0 0 0 0 0 0 0 0
0 0 0 0 0 1 2 5 8 10 13 16 20 25 31 32 29 25 25 26 27 27 25 21 17 16 15 11 6 4 2 1 1 0 0 0 0 0 0 0 0 0 0 0 0 0 0 0 0
0 0 0 0 0 1 2 3 4 5 5 7 13 22 29 30 28 24 22 20 21 23 22 20 16 13 11 8 5 3 3 3 2 1 0 0 0 0 0 0 0 0 0 0 0 0 0 0 0
0 0 0 0 0 0 1 1 1 2 2 3 9 18 24 27 28 26 21 17 17 19 20 18 14 9 6 5 4 3 3 3 2 1 0 0 0 0 0 0 0 0 0 0 0 0 0 0 0
0 0 0 0 0 0 0 0 0 1 1 1 5 11 17 22 27 26 22 17 16 18 18 16 12 7 4 4 4 3 3 3 2 1 0 0 0 0 0 0 0 0 0 0 0 0 0 0 0
0 0 0 0 0 0 0 0 0 0 0 0 2 6 10 16 21 22 19 16 14 14 14 13 10 7 4 4 3 2 2 2 1 0 0 0 0 0 0 0 0 0 0 0 0 0 0 0 0
0 0 0 0 0 0 0 0 0 0 0 0 0 2 6 11 15 16 16 15 12 10 10 9 7 5 3 2 1 1 0 0 0 0 0 0 0 0 0 0 0 0 0 0 0 0 0 0 0
0 0 0 0 0 0 0 0 0 0 0 0 0 1 3 8 11 13 15 15 12 10 9 7 4 2 2 1 0 0 0 0 0 0 0 0 0 0 0 0 0 0 0 0 0 0 0 0 0
0 0 0 0 0 0 0 0 0 0 0 0 0 0 2 5 8 11 14 16 15 13 10 6 3 2 2 2 1 0 0 0 0 0 0 0 0 0 0 0 0 0 0 0 0 0 0 0 0
0 0 0 0 0 0 0 0 0 0 0 0 0 0 2 5 8 10 14 17 17 16 13 7 4 4 5 5 3 1 0 0 0 0 0 0 0 0 0 0 0 0 0 0 0 0 0 0 0
0 0 0 0 0 0 0 0 0 0 0 0 0 0 2 7 8 9 13 16 16 16 14 11 7 7 7 6 4 2 0 0 0 1 1 0 0 0 0 0 0 0 0 0 0 0 0 0 0
0 0 0 0 0 0 0 0 0 0 0 0 0 1 3 5 7 8 12 16 16 15 14 13 11 10 7 5 4 2 1 1 1 1 2 1 0 0 0 0 0 0 0 0 0 0 0 0 0
0 0 0 0 0 0 0 0 0 0 0 0 1 2 3 4 5 7 12 15 16 15 13 13 13 11 8 5 3 3 2 2 1 1 2 1 0 0 0 0 0 0 0 0 0 0 0 0 0

GEFSSGP_con_probscp_102.txt.gz
Probability
0 0 0 0 0 0 0 0 0 0 0 0 1 1 0 0 0 0 1 4 7 8 10 12 12 7 4 3 1 0 0 0 0 0 0 0 0 0 0 0 0 0 0 0 0 0 0 0 0
0 0 0 0 0 0 0 0 0 0 0 1 3 3 1 0 0 1 2 6 12 14 14 16 15 10 5 4 1 0 0 0 0 0 0 0 0 0 0 0 0 0 0 0 0 0 0 0 0
0 0 0 0 0 0 0 0 0 0 1 3 5 5 3 1 1 3 7 13 20 21 21 22 22 15 8 4 1 0 0 0 0 0 0 0 0 0 0 0 0 0 0 0 0 0 0 0 0
0 0 0 0 0 0 0 0 1 0 2 6 9 9 7 5 5 10 18 24 27 26 25 29 31 23 13 5 1 0 0 0 0 0 0 0 0 0 0 0 0 0 0 0 0 0 0 0 0
0 0 0 0 0 0 0 1 3 4 6 10 14 15 13 11 14 22 28 29 30 30 31 34 35 29 17 7 2 0 0 0 0 0 0 0 0 0 0 0 0 0 0 0 0 0 0 0 0
0 0 0 0 0 0 0 2 4 9 15 18 21 21 16 17 24 32 32 30 32 37 41 40 35 27 18 8 3 1 0 0 0 0 0 0 0 0 0 0 0 0 0 0 0 0 0 0 0
0 0 0 0 0 0 0 1 5 14 21 25 26 23 16 18 28 35 34 33 38 45 49 45 35 22 14 8 4 2 1 0 0 0 0 0 0 0 0 0 0 0 0 0 0 0 0 0 0
0 0 0 0 0 0 0 3 8 16 24 27 27 22 18 23 33 38 39 40 44 47 48 43 34 21 11 7 6 4 1 0 0 0 0 0 0 0 0 0 0 0 0 0 0 0 0 0 0
0 0 0 0 0 0 1 5 12 20 28 31 28 25 28 37 44 45 43 43 44 43 38 34 29 21 12 8 8 6 2 1 0 0 0 0 0 0 0 0 0 0 0 0 0 0 0 0 0
0 0 0 0 0 0 1 5 14 24 32 34 34 38 45 51 51 47 43 40 37 34 29 24 23 22 15 9 9 8 5 2 1 0 0 0 0 0 0 0 0 0 0 0 0 0 0 0 0
0 0 0 0 0 0 0 4 13 24 29 34 42 52 57 56 50 45 39 33 29 25 21 19 21 22 16 8 7 8 6 3 1 0 0 0 0 0 0 0 0 0 0 0 0 0 0 0 0
0 0 0 0 0 0 0 3 10 17 23 32 46 56 58 53 46 39 32 25 20 17 14 14 18 20 14 7 5 5 5 3 0 0 0 0 0 0 0 0 0 0 0 0 0 0 0 0 0
0 0 0 0 0 0 1 4 7 12 20 34 48 53 51 47 41 32 23 16 12 9 7 7 11 14 13 8 4 4 4 3 1 0 0 0 0 0 0 0 0 0 0 0 0 0 0 0 0
0 0 0 0 0 0 2 3 6 12 23 37 48 49 45 42 36 27 18 12 8 4 2 3 5 9 11 8 4 3 3 2 1 0 0 0 0 0 0 0 0 0 0 0 0 0 0 0 0
0 0 0 0 0 0 1 2 6 14 25 37 45 45 41 37 32 24 17 11 6 3 1 2 3 5 6 5 2 2 2 1 0 0 0 0 0 0 0 0 0 0 0 0 0 0 0 0 0
0 0 0 0 0 0 0 2 6 13 23 32 38 37 34 31 26 22 17 10 4 1 1 2 3 4 3 2 1 1 1 0 0 0 0 0 0 0 0 0 0 0 0 0 0 0 0 0 0
0 0 0 0 0 0 1 3 6 12 20 27 28 27 26 24 22 20 16 11 4 1 1 2 3 3 3 1 0 0 0 0 0 0 0 0 0 0 0 0 0 0 0 0 0 0 0 0 0
0 0 0 0 0 0 1 3 5 10 17 20 19 18 18 18 17 16 15 11 6 3 3 3 3 3 3 2 1 1 0 0 0 0 0 0 0 0 0 0 0 0 0 0 0 0 0 0 0
0 0 0 0 0 0 1 2 4 9 14 15 14 13 13 13 12 11 12 11 8 5 4 4 3 3 3 2 2 2 1 1 0 0 0 0 0 0 0 0 0 0 0 0 0 0 0 0 0
0 0 0 0 0 0 0 1 3 6 9 10 11 10 10 8 7 7 8 10 9 7 5 4 4 4 3 2 1 2 2 1 0 0 0 0 0 0 0 0 0 0 0 0 0 0 0 0 0
0 0 0 0 0 0 0 1 2 3 4 8 9 9 8 7 5 5 7 8 8 6 6 6 5 4 3 2 1 1 1 1 0 0 0 0 0 0 0 0 0 0 0 0 0 0 0 0 0
0 0 0 0 0 0 0 0 1 1 2 5 7 7 7 6 6 6 6 5 4 5 6 7 5 4 3 3 2 1 0 0 0 0 0 0 0 0 0 0 0 0 0 0 0 0 0 0 0
0 0 0 0 0 0 0 0 0 0 0 2 4 5 5 6 6 5 4 2 1 2 4 6 5 4 3 3 3 1 0 0 0 0 0 0 0 0 0 0 0 0 0 0 0 0 0 0 0
0 0 0 0 0 0 0 0 0 0 0 0 1 2 2 3 5 5 4 2 1 2 3 4 4 3 2 3 3 2 1 0 0 0 0 0 0 0 0 0 0 0 0 0 0 0 0 0 0
0 0 0 0 0 0 0 0 0 0 0 0 0 0 0 1 3 5 5 4 4 5 3 3 3 1 1 1 2 2 1 0 0 0 0 0 0 0 0 0 0 0 0 0 0 0 0 0 0
0 0 0 0 0 0 0 0 0 0 0 0 0 0 0 0 2 4 6 7 7 7 5 3 3 1 0 0 1 1 0 0 0 0 0 0 0 0 0 0 0 0 0 0 0 0 0 0 0
0 0 0 0 0 0 0 0 0 0 0 0 0 0 0 0 0 2 5 7 7 6 6 5 5 3 1 0 0 0 0 0 0 0 0 0 0 0 0 0 0 0 0 0 0 0 0 0 0
0 0 0 0 0 0 0 0 0 0 0 0 0 0 0 0 0 1 3 5 6 6 7 7 6 5 3 2 1 0 0 0 0 0 0 0 0 0 0 0 0 0 0 0 0 0 0 0 0
0 0 0 0 0 0 0 0 0 0 0 0 0 0 0 0 0 0 1 3 4 6 8 9 8 6 5 4 3 2 1 1 1 0 0 0 0 0 0 0 0 0 0 0 0 0 0 0 0
0 0 0 0 0 0 0 0 0 0 0 0 0 0 0 0 0 0 0 1 4 7 9 10 8 6 5 6 5 4 4 3 2 1 0 0 0 0 0 0 0 0 0 0 0 0 0 0 0

GEFSSGP_con_probscp_108.txt.gz
Probability
0 0 0 0 0 0 0 0 0 0 0 0 0 0 0 0 0 0 0 0 1 3 4 3 1 0 1 2 3 4 3 2 1 0 0 0 0 0 0 0 0 0 0 0 0 0 0 0 0
0 0 0 0 0 0 0 0 0 0 0 0 0 0 0 0 0 0 0 0 1 4 6 6 4 1 1 2 2 3 2 1 0 0 0 0 0 0 0 0 0 0 0 0 0 0 0 0 0
0 0 0 0 0 0 0 0 0 0 0 0 0 0 0 1 1 2 3 2 4 8 12 13 9 3 2 2 1 1 1 0 0 0 0 0 0 0 0 0 0 0 0 0 0 0 0 0 0
0 0 0 0 0 0 0 0 0 0 0 0 0 0 1 3 4 5 6 6 8 12 15 17 12 5 2 2 1 0 0 0 0 0 0 0 0 0 0 0 0 0 0 0 0 0 0 0 0
0 0 0 0 0 0 0 0 0 0 0 0 0 1 3 5 7 8 8 9 11 13 15 16 12 6 3 2 1 0 0 0 0 0 0 0 0 0 0 0 0 0 0 0 0 0 0 0 0
0 0 0 0 0 0 0 0 0 0 1 2 2 3 8 11 12 12 11 10 11 13 17 17 11 5 3 2 1 0 0 0 0 0 0 0 0 0 0 0 0 0 0 0 0 0 0 0 0
0 0 0 0 0 0 0 0 0 0 1 3 5 8 14 20 24 23 18 13 13 15 18 17 11 5 3 2 1 0 0 0 0 0 0 0 0 0 0 0 0 0 0 0 0 0 0 0 0
0 0 0 0 0 0 0 0 0 0 2 6 9 13 23 34 39 37 29 22 19 18 17 16 11 6 4 1 1 1 1 0 0 0 0 0 0 0 0 0 0 0 0 0 0 0 0 0 0
0 0 0 0 0 0 0 0 0 1 4 8 13 19 34 47 50 49 43 36 31 26 23 20 15 11 7 2 0 1 1 1 0 0 0 0 0 0 0 0 0 0 0 0 0 0 0 0 0
0 0 0 0 0 0 0 0 0 0 3 9 16 27 43 55 57 56 52 45 41 38 32 27 20 15 10 5 2 2 2 1 0 0 0 0 0 0 0 0 0 0 0 0 0 0 0 0 0
0 0 0 0 0 0 0 0 0 0 2 8 19 35 50 58 59 57 52 46 43 41 37 32 26 20 16 11 6 4 4 3 1 0 0 0 0 0 0 0 0 0 0 0 0 0 0 0 0
0 0 0 0 0 0 0 0 1 2 5 10 21 37 51 56 54 50 45 42 39 38 35 33 32 30 25 19 12 7 6 5 3 1 0 0 0 0 0 0 0 0 0 0 0 0 0 0 0
0 0 0 0 0 0 0 0 2 5 8 13 21 33 43 48 46 41 38 38 37 35 33 31 32 35 32 26 17 10 7 6 4 1 0 0 0 0 0 0 0 0 0 0 0 0 0 0 0
0 0 0 0 0 0 0 0 3 7 9 14 20 27 34 37 36 33 33 34 34 33 31 27 26 30 31 26 17 9 6 7 5 1 0 0 0 0 0 0 0 0 0 0 0 0 0 0 0
0 0 0 0 0 0 0 1 5 8 10 13 18 23 28 31 29 27 27 29 31 31 30 25 21 23 25 22 14 7 5 6 5 1 0 0 0 0 0 0 0 0 0 0 0 0 0 0 0
0 0 0 0 0 0 0 2 7 10 10 13 16 20 24 27 26 22 21 23 27 29 29 24 17 17 21 21 16 9 7 6 4 2 1 0 0 0 0 0 0 0 0 0 0 0 0 0 0
0 0 0 0 0 0 0 3 8 10 10 11 13 15 19 22 22 19 18 20 22 24 25 23 17 16 20 22 20 15 11 8 5 3 1 1 1 0 0 0 0 0 0 0 0 0 0 0 0
0 0 0 0 0 0 0 2 6 8 8 8 9 11 13 14 14 15 17 19 18 17 18 18 17 17 22 24 23 19 13 8 5 2 1 2 2 1 0 0 0 0 0 0 0 0 0 0 0
0 0 0 0 0 0 0 1 4 6 6 5 6 8 9 10 10 12 16 17 15 13 13 14 15 18 22 24 24 20 14 8 4 2 1 3 3 2 2 1 1 0 0 0 0 0 0 0 0
0 0 0 0 0 0 0 1 3 5 4 2 4 7 9 10 10 12 14 15 13 12 11 12 15 18 19 20 21 20 16 10 5 2 2 3 3 3 3 3 2 1 0 0 0 0 0 0 0
0 0 0 0 0 0 0 1 4 4 2 1 3 6 10 12 12 12 12 12 11 11 11 10 14 16 15 16 18 17 15 10 5 3 3 3 3 3 3 3 2 1 0 0 0 0 0 0 0
0 0 0 0 0 0 0 1 2 3 2 1 2 6 10 13 13 11 8 6 8 10 10 10 12 14 13 13 13 11 9 7 5 4 2 2 3 3 3 3 3 1 0 0 0 0 0 0 0
0 0 0 0 0 0 0 0 0 1 1 0 2 4 9 11 10 8 4 3 5 7 8 9 11 12 11 11 10 9 6 5 6 5 3 2 1 2 3 3 3 2 1 0 0 0 0 0 0
0 0 0 0 0 0 0 0 0 0 0 0 1 4 6 7 6 5 4 3 4 4 5 6 9 11 11 11 9 7 6 7 7 6 4 2 1 1 3 3 3 3 1 1 0 0 0 0 0
0 0 0 0 0 0 0 0 0 0 0 0 1 3 5 4 4 4 4 4 4 3 2 3 7 10 12 12 10 7 7 8 8 5 3 2 1 1 2 3 3 3 2 2 1 0 0 0 0
0 0 0 0 0 0 0 0 0 0 0 0 1 3 4 3 2 3 3 3 3 3 1 2 6 9 11 13 13 10 10 9 8 4 2 1 1 0 1 2 3 3 3 2 2 1 0 0 0
0 0 0 0 0 0 0 0 0 0 0 0 0 1 2 1 0 1 1 3 4 3 2 4 7 9 10 12 12 12 12 10 8 4 2 2 2 1 0 1 3 3 3 3 2 1 0 0 0
0 0 0 0 0 0 0 0 0 0 0 0 0 1 2 1 0 1 2 3 4 3 3 5 8 10 11 11 11 11 12 11 8 5 4 4 4 2 1 2 3 3 3 4 3 2 1 1 1
0 0 0 0 0 0 0 0 0 0 0 0 0 1 2 1 1 2 3 5 5 4 4 5 8 10 11 10 10 11 11 10 7 5 4 6 6 4 3 4 4 3 4 5 6 4 3 3 2
0 0 0 0 0 0 0 0 0 0 0 0 1 2 3 2 2 3 4 5 5 4 4 5 7 9 9 10 11 10 9 9 7 5 4 6 7 5 5 6 5 4 4 5 7 6 4 4 3

GEFSSGP_con_probscp_114.txt.gz
Probability
0 3 6 10 11 6 1 0 0 0 0 0 0 0 0 0 0 1 9 27 42 36 23 19 16 8 2 0 0 0 0 0 0 0 0 0 0 0 0 0 0 0 0 0 0 0 0 0 0
1 2 4 7 7 4 0 0 0 0 0 0 0 0 0 0 0 3 14 33 41 31 19 19 19 12 4 0 0 0 0 0 0 0 0 0 0 0 0 0 0 0 0 0 0 0 0 0 0
0 1 2 4 3 1 0 0 0 0 0 0 0 2 3 3 4 7 19 34 37 26 20 24 24 16 6 1 0 0 0 0 0 0 0 0 0 0 0 0 0 0 0 0 0 0 0 0 0
0 0 1 2 2 1 0 0 0 0 0 1 2 6 11 11 11 13 18 27 32 28 26 28 27 18 8 1 0 0 0 0 0 0 0 0 0 0 0 0 0 0 0 0 0 0 0 0 0
0 0 1 1 1 0 0 0 0 0 0 1 4 12 21 22 19 15 15 22 31 34 32 29 25 17 7 1 0 0 0 0 0 0 0 0 0 0 0 0 0 0 0 0 0 0 0 0 0
0 0 0 0 0 0 0 0 0 0 0 1 4 16 29 31 24 15 14 23 34 38 35 29 23 14 6 1 0 0 0 0 0 0 0 0 0 0 0 0 0 0 0 0 0 0 0 0 0
0 0 0 0 0 0 0 0 0 0 0 1 4 17 36 42 31 18 16 27 38 42 37 28 20 12 5 1 0 0 0 0 0 0 0 0 0 0 0 0 0 0 0 0 0 0 0 0 0
0 0 0 0 0 0 0 0 0 0 1 1 4 21 44 52 40 26 23 30 42 46 39 27 17 10 5 2 0 0 0 0 0 0 0 0 0 0 0 0 0 0 0 0 0 0 0 0 0
0 0 0 0 0 0 0 0 0 0 2 7 14 32 52 59 50 41 35 40 50 53 41 25 15 9 5 3 2 1 0 1 0 0 0 0 0 0 0 0 0 0 0 0 0 0 0 0 0
0 0 0 0 0 0 0 0 0 1 5 16 30 46 59 64 62 54 48 51 58 56 42 27 19 13 8 7 6 3 3 3 1 0 0 0 0 0 0 0 0 0 0 0 0 0 0 0 0
0 0 0 0 0 0 0 0 0 2 8 21 37 51 62 69 68 62 56 56 58 54 44 34 28 22 18 15 12 8 7 5 3 1 0 0 0 0 0 0 0 0 0 0 0 0 0 0 0
0 0 0 0 0 0 0 0 1 4 10 20 34 48 60 67 68 64 60 58 57 56 50 43 38 35 34 26 17 12 10 7 5 3 1 0 0 1 1 0 0 0 0 0 0 0 0 0 0
0 0 0 0 0 0 0 0 3 10 16 21 31 45 56 62 64 64 63 61 59 58 54 49 48 49 48 40 27 18 13 8 6 5 2 1 1 2 2 1 0 0 0 0 0 0 0 0 0
0 0 0 0 0 0 0 1 7 14 17 20 31 44 55 60 63 65 65 62 59 58 55 54 54 54 53 47 37 24 14 8 6 5 3 2 2 3 3 2 1 0 0 0 0 0 0 0 0
0 0 0 0 0 0 0 3 10 14 14 18 28 41 54 61 64 65 63 60 58 56 54 53 52 50 48 44 35 23 14 10 9 8 5 3 2 4 4 3 2 1 0 0 0 0 0 0 0
0 0 0 0 0 0 1 5 10 11 13 19 25 36 51 58 59 60 61 59 57 54 52 49 46 45 44 39 30 21 17 17 16 13 9 4 4 5 6 4 2 1 1 0 0 0 0 0 0
0 0 0 0 0 0 1 5 8 10 14 20 26 35 46 52 53 56 60 60 57 52 49 46 43 43 42 37 31 28 25 24 22 17 11 7 5 6 6 4 2 1 0 0 0 0 0 0 0
0 0 0 0 0 0 1 4 8 10 13 20 30 38 45 49 52 56 58 58 55 51 47 44 44 42 38 35 34 32 29 26 24 19 14 10 8 7 6 5 3 1 0 0 0 0 0 0 0
0 0 0 0 0 1 2 4 9 13 14 21 32 41 47 50 53 56 55 51 49 49 47 44 42 39 34 32 33 32 28 25 23 20 17 13 9 7 6 6 4 2 1 0 0 0 0 0 0
0 0 0 0 0 1 2 4 9 13 15 20 30 39 43 47 53 56 52 46 45 47 45 40 37 34 30 28 29 29 27 24 21 20 19 14 10 8 7 6 6 4 3 1 0 0 0 0 0
0 0 0 0 0 1 2 5 9 10 11 17 25 32 33 38 49 54 49 43 43 44 40 34 33 31 26 23 23 25 24 21 20 20 18 14 10 8 7 6 6 6 5 3 1 0 0 0 0
0 0 0 0 0 0 1 5 8 8 9 12 18 24 27 32 44 50 46 39 37 36 31 29 29 27 23 18 17 18 20 19 20 20 17 12 9 7 6 5 5 6 6 5 2 1 1 0 0
0 0 0 0 0 0 1 3 5 6 7 8 11 19 25 31 39 44 41 35 29 25 24 25 26 23 20 17 16 17 18 18 19 18 16 12 8 5 3 3 3 5 6 5 3 2 2 1 0
0 0 0 0 0 0 0 1 2 4 5 6 8 15 24 29 33 37 37 33 26 21 18 20 22 21 19 18 16 15 16 17 17 17 15 10 6 3 2 2 4 4 4 4 2 1 2 2 1
0 0 0 0 0 0 0 0 1 2 2 3 6 12 20 25 28 31 33 31 27 22 18 17 19 21 19 16 14 14 16 16 16 15 12 7 4 3 4 5 6 4 3 2 1 1 2 3 3
0 0 0 0 0 1 1 1 1 1 1 1 3 8 14 20 25 26 28 31 29 24 20 18 19 20 18 14 14 18 18 16 15 14 9 5 3 4 6 8 8 6 4 3 1 1 2 3 3
0 0 0 0 0 0 1 1 2 1 0 0 2 5 9 14 19 21 23 28 29 26 24 22 21 20 15 13 16 21 21 18 15 13 10 8 7 7 10 11 10 7 5 4 3 2 2 3 4
0 0 0 0 0 0 0 1 1 1 1 0 1 4 7 10 13 16 18 22 24 26 25 24 24 22 16 12 14 19 21 20 16 16 16 16 16 15 14 13 10 7 5 5 4 3 3 4 5
0 0 0 0 0 0 0 1 1 2 1 0 1 3 6 9 12 15 15 16 19 22 23 23 23 22 18 15 13 15 19 21 20 21 23 25 26 23 18 14 11 7 6 6 7 6 5 6 7
0 0 0 0 0 0 1 2 2 2 1 1 1 1 5 10 15 16 14 14 15 19 21 21 21 21 19 17 15 13 16 22 24 24 29 33 33 29 21 15 12 8 6 8 9 9 7 7 8

GEFSSGP_con_probscp_120.txt.gz
Probability
3 1 0 0 0 0 0 0 0 0 0 1 2 2 1 0 1 0 0 1 4 8 10 11 15 17 16 14 9 3 1 1 1 0 0 0 0 0 0 0 0 0 0 0 0 0 0 0 0
1 0 0 0 0 0 0 0 0 0 1 3 4 4 2 2 2 1 1 3 8 12 11 12 17 18 17 15 10 5 3 2 2 1 0 0 0 0 0 0 0 0 0 0 0 0 0 0 0
0 0 0 0 0 0 0 0 0 0 3 6 9 9 6 5 6 4 5 10 16 18 16 16 18 19 18 15 11 6 4 3 3 1 1 0 0 0 0 0 0 0 0 0 0 0 0 0 0
0 0 0 0 0 0 0 0 0 1 3 9 15 17 14 13 15 16 15 19 23 25 23 22 22 21 18 15 11 6 3 3 3 3 2 1 0 0 0 0 0 0 0 0 0 0 0 0 0
0 0 0 0 0 0 0 0 1 3 7 15 22 24 22 24 31 32 27 26 28 30 29 26 25 22 18 14 10 6 3 3 3 3 3 2 1 0 0 0 0 0 0 0 0 0 0 0 0
0 0 0 0 0 0 0 0 1 6 13 22 29 29 26 32 41 41 35 29 28 31 31 28 24 21 16 12 9 6 4 3 3 3 3 2 1 0 0 0 0 0 0 0 0 0 0 0 0
0 0 0 0 0 0 0 0 2 8 18 28 36 34 29 31 39 41 37 31 27 29 31 27 22 18 15 12 9 6 4 3 3 3 3 2 1 0 0 0 0 0 0 0 0 0 0 0 0
0 0 0 0 0 0 0 0 3 12 22 31 38 38 32 32 38 42 40 33 28 27 27 23 18 16 14 12 9 6 5 3 3 4 3 2 1 0 0 0 0 0 0 0 0 0 0 0 0
0 0 0 0 0 0 0 1 6 17 25 30 35 38 38 40 45 51 49 39 30 25 23 20 17 14 12 9 7 6 5 4 3 4 3 2 1 0 0 0 0 0 0 0 0 0 0 0 0
0 0 0 0 0 0 0 2 8 19 25 27 32 39 44 48 53 59 57 45 35 28 23 21 18 13 9 7 5 4 4 4 2 2 1 1 0 0 0 0 0 0 0 0 0 0 0 0 0
0 0 0 0 0 0 0 1 6 15 21 25 32 41 47 48 53 60 58 47 38 31 26 21 17 12 8 5 4 3 3 3 1 0 0 0 0 0 0 0 0 0 0 0 0 0 0 0 0
0 0 0 0 0 0 0 0 3 9 17 26 36 44 47 47 50 54 54 47 40 34 29 21 13 9 8 6 4 3 3 3 1 1 0 0 0 0 0 0 0 0 0 0 0 0 0 0 0
0 0 0 0 0 0 0 0 3 10 21 32 43 48 48 48 47 47 49 48 42 37 31 21 10 7 7 6 4 3 3 3 2 1 0 0 0 0 0 0 0 0 0 0 0 0 0 0 0
0 0 0 0 0 0 0 1 4 14 27 38 47 52 49 44 43 44 47 47 43 38 31 21 11 7 6 5 3 3 3 3 2 1 0 0 0 0 0 0 0 0 0 0 0 0 0 0 0
0 0 0 0 0 0 0 1 6 18 30 38 45 51 47 41 39 44 48 45 41 35 29 21 14 9 5 2 1 2 2 1 1 0 0 0 0 0 0 0 0 0 0 0 0 0 0 0 0
0 0 0 0 0 0 0 2 8 19 29 36 42 48 46 39 38 44 49 45 38 31 24 19 16 12 6 2 1 1 1 1 1 0 0 0 0 0 0 0 0 0 0 0 0 0 0 0 0
0 0 0 0 0 0 1 3 8 15 24 32 40 44 42 35 35 42 46 43 37 28 20 17 16 14 9 4 3 3 3 4 4 2 1 0 0 0 0 0 0 0 0 0 0 0 0 0 0
0 0 0 0 1 1 2 4 7 12 19 27 34 38 37 32 33 38 41 38 32 25 19 17 17 15 12 9 7 7 8 8 7 5 3 1 0 0 1 0 0 0 0 0 0 0 0 0 0
0 0 0 1 2 2 3 5 7 10 15 21 26 30 32 32 32 36 37 34 29 24 20 19 18 16 15 12 9 9 11 11 8 5 2 1 0 0 0 0 0 0 0 0 0 0 0 0 0
0 0 0 1 2 2 3 5 7 8 12 15 19 25 30 32 32 32 33 31 27 25 22 19 17 15 14 11 8 7 10 11 7 3 1 0 0 0 0 0 0 0 0 0 0 0 0 0 0
0 0 0 1 2 2 2 4 5 6 7 9 14 23 28 30 30 28 27 26 25 25 22 18 15 13 11 10 7 7 8 7 4 1 0 0 1 1 1 0 0 0 0 0 0 0 0 0 0
0 0 0 0 1 1 1 2 2 2 3 5 11 18 24 24 23 22 22 22 22 23 21 17 13 11 9 8 7 7 6 4 1 0 0 0 1 2 1 0 0 0 0 0 0 0 0 0 0
0 0 0 0 0 0 0 0 0 0 1 3 7 13 17 18 17 16 16 17 17 18 18 16 12 9 7 6 6 6 5 3 1 0 0 0 1 1 1 0 0 0 0 0 0 0 0 0 0
0 0 0 0 0 0 0 0 0 0 0 1 4 8 11 12 13 12 10 11 13 14 15 14 11 7 5 4 5 4 4 3 2 0 0 0 0 0 0 0 0 0 0 0 0 0 0 0 0
0 0 0 0 0 0 0 0 0 0 0 1 2 4 5 7 9 9 8 8 9 11 12 11 9 6 4 3 3 3 3 3 2 0 0 0 0 0 0 0 0 0 0 0 0 0 0 0 0
0 0 0 0 0 0 0 0 0 0 0 1 2 3 3 3 5 7 7 6 7 9 10 9 7 5 3 3 2 2 3 3 2 1 0 0 0 0 0 0 0 0 0 0 0 0 0 0 0
0 0 0 0 0 0 0 0 0 0 0 2 4 4 3 2 3 3 3 4 5 6 7 7 5 3 3 3 2 2 1 2 2 1 0 0 0 0 0 0 0 0 0 0 0 0 0 0 0
0 0 0 0 0 0 0 0 0 0 0 2 4 5 3 2 2 2 2 3 4 6 6 6 5 3 3 3 3 2 1 1 1 0 0 0 0 0 0 0 0 0 0 0 0 0 0 0 0
0 0 0 0 0 0 0 0 0 0 1 2 4 5 5 5 5 5 5 5 6 6 7 7 5 4 3 3 3 3 3 2 1 1 0 0 0 0 0 0 0 0 0 0 0 0 0 0 0
0 0 0 0 0 0 0 0 0 0 1 3 6 6 7 9 10 8 8 7 7 7 7 7 6 4 3 3 3 3 3 3 2 2 1 0 0 0 0 0 0 0 0 0 0 0 0 0 0

GEFSSGP_con_probscp_126.txt.gz
Probability
0 0 0 0 0 0 0 0 0 0 0 0 0 1 1 0 0 0 0 0 0 2 3 4 7 9 6 3 2 2 1 1 1 1 1 0 0 0 0 0 0 0 0 0 0 0 0 0 0
0 0 0 0 0 0 0 0 0 0 1 1 2 2 2 1 0 0 0 1 2 2 4 5 7 9 7 4 3 3 2 1 1 1 0 0 0 0 0 0 0 0 0 0 0 0 0 0 0
0 0 0 0 0 0 0 0 0 1 2 4 4 4 3 1 0 1 3 6 6 5 4 6 10 10 9 6 5 4 2 1 0 0 0 0 0 0 0 0 0 0 0 0 0 0 0 0 0
0 0 0 0 0 0 0 0 1 3 5 7 8 8 5 2 2 5 9 14 14 10 6 9 15 14 11 9 6 3 2 1 0 0 0 0 0 0 0 0 0 0 0 0 0 0 0 0 0
0 0 0 0 0 0 0 0 1 4 7 11 13 12 9 6 7 13 18 21 20 15 9 12 18 17 14 11 5 1 1 0 0 0 0 0 0 0 0 0 0 0 0 0 0 0 0 0 0
0 0 0 0 0 0 0 0 1 4 10 15 17 17 14 13 16 21 24 24 22 18 14 14 17 16 13 9 4 1 0 0 0 0 0 0 0 0 0 0 0 0 0 0 0 0 0 0 0
0 0 0 0 0 0 0 0 1 5 11 18 21 20 18 19 25 30 30 28 25 22 20 20 18 15 10 6 4 1 0 0 0 0 0 0 0 0 0 0 0 0 0 0 0 0 0 0 0
0 0 0 0 0 0 0 1 2 5 12 20 24 22 22 28 35 37 37 36 31 27 26 25 21 15 9 5 3 1 0 0 0 0 0 0 0 0 0 0 0 0 0 0 0 0 0 0 0
0 0 0 0 0 0 0 1 3 7 14 22 25 25 31 42 46 43 42 40 35 30 29 27 22 15 9 6 3 1 0 0 0 0 0 1 0 0 0 0 0 0 0 0 0 0 0 0 0
0 0 0 0 0 0 1 2 4 8 13 20 26 35 47 56 52 44 41 40 37 34 30 27 23 16 11 8 5 2 0 0 0 0 0 0 0 0 0 0 0 0 0 0 0 0 0 0 0
0 0 0 0 0 0 1 2 3 5 9 15 28 45 58 62 54 43 38 38 38 36 32 28 24 18 13 10 8 4 1 0 0 0 0 0 0 0 0 0 0 0 0 0 0 0 0 0 0
0 0 0 0 0 0 0 1 2 3 6 13 29 47 58 59 52 43 39 37 37 35 31 26 22 18 14 13 10 6 2 0 0 0 0 0 0 0 0 0 0 0 0 0 0 0 0 0 0
0 0 0 0 0 0 1 2 2 4 7 15 27 42 51 51 48 45 42 40 37 34 28 24 21 18 15 12 9 6 2 1 1 1 1 0 0 0 0 0 0 0 0 0 0 0 0 0 0
0 0 0 0 0 0 1 2 3 5 11 19 27 35 39 40 43 45 44 42 39 33 27 23 22 20 14 9 6 4 2 2 2 2 1 0 0 0 0 0 0 0 0 0 0 0 0 0 0
0 0 0 0 0 0 1 1 2 5 12 20 25 27 28 31 37 42 42 40 36 29 24 21 19 16 10 5 3 3 3 2 2 3 2 1 0 0 0 0 0 0 0 0 0 0 0 0 0
0 0 0 0 0 0 0 0 1 4 11 18 22 22 23 26 32 36 36 34 28 22 18 16 14 9 5 3 2 2 2 2 1 2 2 1 0 0 0 0 0 0 0 0 0 0 0 0 0
0 0 0 0 0 0 0 0 1 4 11 17 19 20 22 24 27 30 32 30 24 16 12 11 8 5 2 1 0 0 1 0 0 1 1 0 0 0 0 0 0 0 0 0 0 0 0 0 0
0 0 0 0 0 0 0 0 1 5 11 15 16 18 21 21 22 25 27 27 23 14 9 7 5 2 1 0 0 0 0 0 0 0 0 0 0 0 0 0 0 0 0 0 0 0 0 0 0
0 0 0 0 0 0 1 1 1 4 10 11 11 15 20 21 20 22 23 23 20 14 9 6 3 2 1 1 0 0 1 1 1 1 0 0 0 0 0 0 0 0 0 0 0 0 0 0 0
0 0 0 0 0 0 1 2 1 3 7 8 8 11 19 23 23 21 20 17 14 12 9 6 3 3 3 3 1 1 1 2 2 2 1 0 0 0 0 0 0 0 0 0 0 0 0 0 0
0 0 0 0 0 0 1 1 0 1 3 4 5 9 16 22 23 20 15 11 8 9 8 6 4 4 5 5 3 2 1 2 2 2 1 0 0 0 0 0 0 0 0 0 0 0 0 0 0
0 0 0 0 0 0 1 0 0 0 1 1 2 6 12 16 16 14 11 7 5 5 5 4 4 4 5 5 4 3 2 2 2 2 1 0 0 0 0 0 0 0 0 0 0 0 0 0 0
0 0 0 0 0 0 0 0 0 0 0 0 0 3 6 9 9 8 8 6 3 3 2 2 3 4 4 4 4 3 3 2 1 1 1 0 0 0 0 0 0 0 0 0 0 0 0 0 0
0 0 0 0 0 0 0 0 0 0 0 0 0 1 3 4 3 3 4 4 3 2 1 1 2 3 3 3 3 3 3 2 1 1 0 0 0 0 0 0 0 0 0 0 0 0 0 0 0
0 0 0 0 0 0 0 0 0 0 0 0 0 1 2 1 0 1 2 3 3 2 1 1 2 3 3 3 3 3 3 3 2 2 1 1 0 0 0 0 0 0 0 0 0 0 0 0 0
0 0 0 0 0 0 0 0 0 0 0 0 0 0 1 0 0 1 2 3 3 1 1 1 2 2 3 3 3 2 2 2 3 3 3 2 1 0 0 0 0 0 0 0 0 0 0 0 0
0 0 0 0 0 0 0 0 0 0 0 0 0 1 1 1 0 0 1 2 2 1 0 1 1 1 2 2 2 1 1 1 1 2 3 3 2 1 0 0 0 0 0 0 0 0 0 0 0
0 0 0 0 0 0 0 0 0 0 0 0 0 1 1 1 0 0 0 1 1 0 0 1 1 1 2 3 2 1 0 0 0 1 1 2 2 1 0 0 0 0 0 0 0 0 0 0 0
0 0 0 0 0 0 0 0 0 0 0 0 0 0 0 0 0 1 1 0 0 0 0 1 2 3 3 3 2 1 0 0 0 0 0 1 1 0 0 0 0 0 0 0 0 0 0 0 0
0 0 0 0 0 0 0 0 0 0 0 0 0 0 0 0 1 2 2 1 0 0 0 1 2 3 3 3 2 1 0 0 0 0 0 0 0 0 0 0 0 0 0 0 0 0 0 0 0

GEFSSGP_con_probscp_132.txt.gz
Probability
1 1 2 3 3 1 0 0 0 0 0 0 0 0 0 0 0 0 0 0 0 0 0 0 0 0 0 1 4 4 1 0 0 0 0 0 0 0 0 0 0 0 0 0 0 0 0 0 0
0 0 1 1 1 0 0 0 0 0 0 0 0 0 0 0 0 0 0 0 0 0 0 0 0 0 0 1 5 5 2 0 0 0 0 0 0 0 0 0 0 0 0 0 0 0 0 0 0
0 0 0 0 0 0 0 0 0 0 0 0 0 0 0 0 0 1 1 1 0 0 0 0 0 0 0 1 4 4 2 0 0 0 0 0 0 0 0 0 0 0 0 0 0 0 0 0 0
0 0 0 0 0 0 0 0 0 0 1 1 1 0 0 1 2 3 4 4 2 1 1 1 1 1 1 1 1 1 1 0 0 0 0 0 0 0 0 0 0 0 0 0 0 0 0 0 0
0 0 0 0 0 0 0 0 0 0 1 2 1 1 2 3 4 5 6 6 5 4 4 5 4 3 2 1 0 0 0 0 0 0 0 0 0 0 0 0 0 0 0 0 0 0 0 0 0
0 0 0 0 0 0 0 0 0 0 1 1 1 3 7 9 9 8 9 9 8 8 9 8 5 4 3 2 1 0 0 0 0 0 0 0 0 0 0 0 0 0 0 0 0 0 0 0 0
0 0 0 0 0 0 0 0 0 0 0 0 0 4 14 21 20 15 14 14 13 13 14 11 6 4 4 3 2 1 0 0 0 0 0 0 0 0 0 0 0 0 0 0 0 0 0 0 0
0 0 0 0 0 0 0 0 0 0 0 0 1 6 21 35 36 29 25 22 21 19 17 12 6 5 4 3 2 1 0 0 0 0 0 0 0 0 0 0 0 0 0 0 0 0 0 0 0
0 0 0 0 0 0 0 0 0 0 0 1 4 11 29 47 51 44 36 31 29 25 19 12 7 6 4 3 2 2 0 0 0 0 0 0 0 0 0 0 0 0 0 0 0 0 0 0 0
0 0 0 0 0 0 0 0 0 0 1 3 9 22 40 54 58 53 45 39 36 31 23 14 9 7 5 4 4 4 2 0 0 0 0 0 0 0 0 0 0 0 0 0 0 0 0 0 0
0 0 0 0 0 0 0 0 0 0 1 4 13 32 51 60 60 56 49 43 40 37 29 19 14 12 9 8 8 8 6 3 1 0 0 0 0 0 0 0 0 0 0 0 0 0 0 0 0
0 0 0 0 0 0 0 0 0 1 2 5 15 36 55 60 59 56 52 46 43 41 34 26 21 19 17 14 12 11 10 8 5 2 1 0 0 0 1 1 1 0 0 0 0 0 0 0 0
0 0 0 0 0 0 0 0 0 1 2 6 16 33 47 52 52 52 53 50 47 44 37 31 28 26 24 21 16 13 14 13 9 5 2 1 0 0 1 2 2 1 0 0 0 0 0 0 0
0 0 0 0 0 0 0 0 0 1 3 6 12 23 35 41 44 47 51 53 49 44 39 34 31 29 25 22 17 14 14 13 8 5 2 1 0 0 0 1 2 1 0 0 0 0 0 0 0
0 0 0 0 0 0 0 0 1 3 5 7 10 17 27 35 40 43 48 50 47 42 37 32 28 25 21 18 16 15 12 7 4 2 1 0 0 0 0 1 1 1 0 0 0 0 0 0 0
0 0 0 0 0 0 0 0 1 3 6 9 12 17 25 34 38 41 43 46 45 41 36 29 22 19 18 17 16 14 10 4 2 2 2 1 0 0 0 1 1 1 0 1 0 0 0 0 0
0 0 0 0 0 0 0 0 0 2 6 10 12 17 24 32 36 37 39 41 41 39 35 28 20 17 16 16 16 15 10 5 2 2 2 1 0 0 0 1 2 1 0 0 0 0 0 0 0
0 0 0 0 0 0 0 0 1 3 6 9 11 15 21 28 32 34 35 35 34 34 32 27 22 19 17 13 13 13 9 5 2 1 1 1 1 0 1 2 2 1 0 0 0 0 0 0 0
0 0 0 0 0 0 0 0 1 5 7 9 10 12 16 22 29 31 31 30 29 28 27 24 21 19 15 11 12 13 9 5 2 1 1 2 1 1 2 3 4 3 1 0 0 0 0 0 0
0 0 0 0 0 0 0 0 1 4 8 9 10 11 13 19 26 29 29 26 24 24 23 19 16 14 12 9 11 14 12 6 2 1 2 3 3 2 2 3 4 3 1 1 0 0 0 0 0
0 0 0 0 0 0 0 0 1 3 6 9 9 10 11 15 21 26 26 21 19 19 17 13 10 8 8 8 9 10 9 5 2 2 3 3 3 2 1 2 2 2 2 2 1 0 0 0 0
0 0 0 0 0 0 0 0 1 2 4 6 6 6 5 9 15 20 20 16 14 14 12 9 7 6 6 6 5 5 4 3 2 3 4 3 3 3 1 1 0 2 4 3 1 0 0 0 0
0 0 0 0 0 0 0 0 0 1 1 2 3 3 2 4 9 13 12 10 10 10 9 7 6 6 6 5 4 3 3 2 2 4 4 4 5 4 3 2 2 2 3 2 1 1 1 1 0
0 0 0 0 0 0 0 0 0 0 0 1 2 3 2 2 4 6 6 6 7 8 8 7 7 6 5 4 3 2 1 1 2 3 4 6 7 6 6 5 4 2 1 1 1 2 3 2 1
0 0 0 0 0 0 0 0 0 0 0 0 2 3 2 1 1 2 3 4 6 6 6 7 7 6 6 4 3 1 0 0 1 2 4 6 8 8 7 6 5 2 0 0 1 3 3 3 3
0 0 0 0 0 0 0 0 0 0 0 1 1 2 2 1 1 2 3 4 5 5 4 5 6 7 7 5 3 1 1 1 2 3 3 5 7 7 7 6 5 3 1 1 2 3 3 3 3
0 0 0 0 0 0 0 0 0 0 0 1 1 1 2 3 4 4 4 3 3 3 2 3 4 5 5 4 3 3 2 3 3 3 4 5 6 7 6 6 5 4 4 3 3 2 2 3 3
0 0 0 0 0 0 0 0 0 0 0 0 0 0 2 5 6 5 4 3 3 3 3 3 3 3 3 3 2 2 3 3 4 5 6 7 7 7 6 5 5 5 5 4 4 2 1 2 3
0 0 0 0 0 0 0 0 0 0 0 0 0 0 2 5 6 6 5 5 5 6 6 5 4 3 2 2 2 1 2 4 6 6 8 11 10 7 4 4 4 5 5 5 3 1 0 1 2
0 0 0 0 0 0 0 0 0 0 0 0 0 0 2 4 5 6 6 6 6 6 7 7 6 3 2 2 2 2 2 5 7 7 9 13 12 7 4 2 4 5 5 4 2 0 0 0 1

GEFSSGP_con_probscp_138.txt.gz
Probability
4 13 24 34 32 16 3 0 0 0 0 0 0 0 0 0 0 0 2 4 4 2 1 0 1 2 1 0 0 0 0 0 0 0 0 0 0 0 0 0 0 0 0 0 0 0 0 0 0
3 9 19 27 23 9 1 0 0 0 0 0 0 0 0 0 0 1 4 7 5 2 1 1 2 2 1 0 0 0 0 0 0 0 0 0 0 0 0 0 0 0 0 0 0 0 0 0 0
2 5 12 16 10 3 0 0 0 0 0 0 0 0 0 0 1 4 9 10 6 2 1 3 4 3 1 0 0 0 0 0 0 0 0 0 0 0 0 0 0 0 0 0 0 0 0 0 0
1 4 7 7 3 0 0 0 0 0 0 0 0 0 0 1 4 8 13 13 9 5 4 5 6 5 1 0 0 0 0 0 0 0 0 0 0 0 0 0 0 0 0 0 0 0 0 0 0
1 2 3 2 0 0 0 0 0 0 0 0 1 2 3 5 9 11 12 15 14 12 8 6 7 5 1 0 0 0 0 0 0 0 0 0 0 0 0 0 0 0 0 0 0 0 0 0 0
0 0 0 0 0 0 0 0 0 0 0 0 2 6 9 11 12 11 11 16 20 19 13 8 6 4 1 0 0 0 0 0 0 0 0 0 0 0 0 0 0 0 0 0 0 0 0 0 0
0 0 0 0 0 0 0 0 0 0 0 0 2 9 17 20 17 14 14 20 26 24 17 11 8 6 3 0 0 0 0 0 0 0 0 0 0 0 0 0 0 0 0 0 0 0 0 0 0
0 0 0 0 0 0 0 0 0 0 0 0 2 12 26 31 24 20 22 27 32 29 21 15 11 8 4 1 0 0 0 0 0 0 0 0 0 0 0 0 0 0 0 0 0 0 0 0 0
0 0 0 0 0 0 0 0 0 1 1 2 7 20 34 34 29 28 31 35 39 37 26 18 14 10 4 0 0 0 0 0 0 0 0 0 0 0 0 0 0 0 0 0 0 0 0 0 0
0 0 0 0 0 0 0 0 0 1 1 5 17 31 35 31 32 37 40 44 48 45 35 25 19 13 6 3 2 1 0 1 1 0 0 0 0 0 0 0 0 0 0 0 0 0 0 0 0
0 0 0 0 0 0 0 0 0 1 1 8 25 37 36 34 38 44 47 52 54 52 43 33 27 20 13 10 7 3 1 2 2 1 0 1 1 1 0 0 1 1 0 0 0 0 0 0 0
0 0 0 0 0 0 0 0 0 1 2 11 27 39 42 41 43 47 53 57 60 58 49 41 37 33 28 21 13 7 4 4 4 4 2 2 2 1 0 1 2 1 0 0 0 0 0 0 0
0 0 0 0 0 0 0 0 1 3 6 11 25 40 46 46 47 52 59 63 65 64 58 50 48 48 45 34 21 13 10 9 8 8 6 4 3 1 0 1 1 1 0 0 0 0 0 0 0
0 0 0 0 0 0 0 0 2 5 7 11 23 39 46 47 50 58 65 68 69 69 64 56 54 55 52 42 29 20 16 14 12 11 9 6 4 3 1 1 1 0 0 0 0 0 0 0 0
0 0 0 0 0 0 0 1 3 5 6 12 24 38 46 49 53 61 68 70 71 69 63 55 52 52 49 41 32 24 19 15 15 14 12 8 7 6 3 1 1 1 1 1 0 0 0 0 0
0 0 0 0 0 0 0 1 3 4 7 16 28 39 48 52 55 61 66 69 70 67 59 51 46 45 41 36 32 26 20 18 17 16 14 11 10 8 4 1 1 1 1 0 0 0 0 0 0
0 0 0 0 0 0 0 1 3 3 8 21 34 44 53 55 56 61 65 68 68 63 55 47 43 39 34 31 31 27 23 21 18 15 14 13 12 11 7 3 2 2 1 1 1 1 1 1 0
0 0 0 0 0 0 0 1 2 3 8 22 39 51 59 60 60 63 65 65 64 58 51 46 41 37 31 29 30 28 24 21 17 12 12 13 11 11 9 6 5 4 3 3 2 2 2 2 1
0 0 0 0 0 0 0 0 1 3 7 22 42 55 62 65 65 64 62 61 58 54 49 45 39 33 28 27 30 28 21 16 13 12 13 12 9 7 8 8 7 5 4 4 4 4 4 3 3
0 0 0 0 0 0 0 0 2 5 8 20 39 52 61 66 66 63 59 55 52 47 44 40 34 30 27 27 27 25 18 13 12 15 15 12 8 5 6 9 7 6 6 6 7 8 7 5 4
0 0 0 0 0 0 0 1 4 8 10 16 31 46 56 62 64 60 55 51 45 39 37 36 33 30 29 27 24 21 17 13 13 16 15 13 9 5 6 9 8 7 7 10 12 13 10 7 6
0 0 0 0 0 0 0 1 4 8 11 14 25 39 51 58 59 55 50 45 39 33 32 35 36 33 29 25 21 19 16 13 14 15 13 13 11 7 7 9 9 9 10 11 13 13 12 9 7
0 0 0 0 0 0 0 1 3 6 9 13 23 36 47 54 54 49 44 40 35 32 32 36 38 36 29 23 20 16 13 11 12 12 11 10 11 8 7 10 12 12 14 13 13 13 12 8 5
0 0 0 0 0 0 0 1 2 4 6 12 23 35 43 47 48 42 38 36 34 33 33 36 38 36 30 23 17 12 9 8 9 9 8 8 9 8 8 10 15 17 17 16 16 15 12 7 5
0 0 0 0 0 0 0 2 4 5 6 11 22 30 35 40 39 34 32 33 34 33 33 34 36 33 27 19 13 9 7 7 7 7 7 7 7 7 8 11 16 17 16 16 17 16 11 7 6
0 0 0 0 0 0 0 3 7 7 6 10 18 22 25 29 29 25 26 28 29 29 29 31 34 29 20 13 9 8 8 7 7 6 6 6 6 7 10 14 16 15 12 12 15 14 10 7 6
0 0 0 0 0 0 0 3 7 7 6 8 13 15 16 19 20 20 21 22 22 24 27 30 32 27 17 10 8 7 7 7 7 6 5 5 6 8 11 16 17 15 12 12 14 12 10 9 6
0 0 0 0 0 0 0 2 6 7 6 7 9 12 15 16 17 20 21 18 18 21 26 29 29 24 18 13 9 7 6 6 6 5 6 8 9 12 14 15 15 16 15 15 14 11 9 10 9
0 0 0 0 0 0 0 1 4 6 7 9 11 14 17 16 19 24 23 19 17 21 25 26 25 21 18 16 14 13 12 9 7 7 9 11 14 17 18 15 14 15 15 15 12 9 8 9 9
0 0 0 0 0 0 0 1 3 5 8 11 14 17 18 17 21 28 26 20 19 22 23 24 23 20 19 18 18 20 18 14 11 9 10 14 17 20 20 17 16 15 15 14 11 7 7 8 7

GEFSSGP_con_probscp_144.txt.gz
Probability
1 1 1 1 1 0 0 0 0 0 0 0 0 0 0 0 0 0 0 1 2 1 0 0 0 0 0 0 0 0 0 0 0 0 0 0 0 0 0 0 0 0 0 0 0 0 0 0 0
1 0 0 1 1 0 0 0 0 0 0 0 0 0 0 0 0 0 1 3 4 2 1 0 0 0 0 0 0 0 0 0 0 0 0 0 0 0 0 0 0 0 0 0 0 0 0 0 0
0 0 0 0 1 1 0 0 0 0 1 1 1 1 1 2 2 2 4 7 7 3 1 0 0 0 0 0 0 0 0 0 0 0 0 0 0 0 0 0 0 0 0 0 0 0 0 0 0
0 0 0 0 1 1 0 0 0 1 1 2 3 3 3 6 10 11 11 11 9 5 2 1 1 1 1 1 1 2 1 1 0 0 0 0 0 0 0 0 0 0 0 0 0 0 0 0 0
0 0 0 0 1 1 0 0 2 4 5 4 4 5 6 14 22 22 17 14 12 9 6 4 3 3 3 3 3 3 2 1 0 0 0 0 0 0 0 0 0 0 0 0 0 0 0 0 0
0 0 0 0 0 0 0 1 5 8 9 7 6 6 10 20 29 26 19 15 14 14 12 9 7 6 6 5 4 3 2 1 0 0 0 0 0 0 0 0 0 0 0 0 0 0 0 0 0
0 0 0 0 0 0 0 1 5 7 8 9 8 8 11 21 29 27 20 16 16 17 16 12 9 8 7 6 5 4 1 0 0 0 0 0 0 0 0 0 0 0 0 0 0 0 0 0 0
0 0 0 0 0 0 0 1 2 4 6 8 9 9 13 24 33 32 26 21 19 18 17 13 10 9 8 7 6 4 1 0 0 0 0 0 0 0 0 0 0 0 0 0 0 0 0 0 0
0 0 0 0 0 0 0 0 1 4 7 9 9 13 20 32 41 41 36 30 24 21 18 14 12 11 9 7 5 3 1 0 0 0 0 0 0 0 0 0 0 0 0 0 0 0 0 0 0
0 0 0 0 0 0 0 0 2 6 10 11 15 24 32 40 47 48 43 35 28 23 18 14 14 13 10 8 5 3 1 0 0 0 0 0 0 0 0 0 0 0 0 0 0 0 0 0 0
0 0 0 0 0 0 0 0 2 7 9 12 21 32 38 43 48 49 44 35 29 23 17 14 14 13 12 9 7 4 1 0 0 0 0 0 0 0 0 0 0 0 0 0 0 0 0 0 0
0 0 0 0 0 0 0 1 4 7 9 14 25 32 35 39 44 46 42 36 31 25 17 14 14 13 12 11 9 6 2 0 0 0 0 0 0 0 0 0 0 0 0 0 0 0 0 0 0
0 0 0 0 0 0 1 4 7 10 15 23 29 31 32 34 39 42 42 40 36 29 20 15 15 13 11 10 10 8 4 1 0 0 0 0 0 0 0 0 0 0 0 0 0 0 0 0 0
0 0 0 0 0 0 2 7 11 17 27 34 36 34 31 32 36 41 45 45 42 34 24 18 17 15 12 10 9 7 5 3 1 0 0 0 0 0 0 0 0 0 0 0 0 0 0 0 0
0 0 0 0 0 0 2 6 13 24 37 44 43 38 33 31 33 41 49 50 47 40 30 23 20 18 14 11 9 7 5 4 2 1 0 0 0 0 0 0 0 0 0 0 0 0 0 0 0
0 0 0 0 0 0 1 5 13 27 41 48 47 44 38 33 33 41 50 53 50 45 38 30 25 21 17 13 9 6 4 4 3 1 0 0 0 0 0 0 0 0 0 0 0 0 0 0 0
0 0 0 0 0 0 1 5 13 29 42 47 48 47 43 38 37 43 51 54 52 47 41 34 27 23 19 16 12 8 5 4 2 1 0 0 0 0 0 0 0 0 0 0 0 0 0 0 0
0 0 0 0 0 1 3 6 15 29 41 46 49 49 45 41 41 47 52 54 51 46 41 35 28 22 18 18 16 10 5 3 1 0 0 0 0 0 0 0 0 0 0 0 0 0 0 0 0
0 0 0 0 0 1 4 9 16 25 36 45 49 49 46 45 47 51 53 53 49 44 38 31 26 21 17 17 15 8 3 2 1 1 0 0 0 0 0 0 0 0 0 0 0 0 0 0 0
0 0 0 0 0 1 4 8 11 17 28 38 46 49 49 52 54 54 52 49 46 41 33 25 21 19 16 14 10 5 2 2 1 1 1 0 0 0 0 0 0 0 0 0 0 0 0 0 0
0 0 0 0 0 0 2 3 5 11 21 31 40 47 51 55 57 53 48 45 41 36 28 20 17 16 14 10 7 4 2 2 1 1 1 0 0 0 0 0 0 0 0 0 0 0 0 0 0
0 0 0 0 0 0 0 0 2 8 16 24 35 42 47 52 53 48 43 40 36 30 23 17 13 12 11 8 6 5 3 1 1 1 1 0 0 0 0 0 0 0 0 0 0 0 0 0 0
0 0 0 0 0 0 0 0 1 6 11 18 28 37 42 46 46 41 37 32 28 23 19 14 10 8 8 7 6 5 3 1 0 0 0 0 0 0 0 0 0 0 0 0 0 0 0 0 0
0 0 0 0 0 0 0 0 0 2 7 15 24 33 39 40 37 34 30 26 23 20 16 12 8 7 7 7 6 5 3 1 0 0 0 0 0 0 0 0 0 0 0 0 0 0 0 0 0
0 0 0 0 0 0 0 0 0 1 6 14 22 30 35 33 30 28 26 24 21 18 14 11 8 7 6 6 6 6 4 2 1 1 0 0 0 0 0 0 0 1 1 1 1 1 0 0 0
0 0 0 0 0 0 0 0 0 2 7 14 22 29 31 27 24 24 22 21 19 16 13 10 8 7 6 6 6 6 4 2 1 1 0 0 0 0 0 0 1 2 3 3 2 2 1 0 0
0 0 0 0 0 0 0 0 1 3 10 17 23 27 27 22 19 17 16 15 14 13 11 10 8 8 7 6 6 5 3 1 1 0 0 0 0 0 0 1 2 4 4 4 3 2 1 0 0
0 0 0 0 0 0 0 0 1 4 12 19 24 26 23 18 16 13 11 11 10 9 10 10 9 8 7 6 4 2 1 0 0 0 0 0 0 0 0 1 2 3 3 3 2 1 0 0 0
0 0 0 0 0 0 0 0 1 4 12 19 24 24 21 16 15 14 12 10 8 7 8 9 7 5 4 4 2 1 0 0 0 0 0 0 0 0 0 1 1 1 1 1 1 0 0 0 0
0 0 0 0 0 0 0 0 1 4 11 18 23 24 20 16 16 16 13 9 7 5 6 7 5 2 2 2 1 0 0 0 0 0 0 0 0 0 0 0 0 0 0 0 0 0 0 0 0

GEFSSGP_con_probscp_150.txt.gz
Probability
3 3 1 0 0 0 0 0 0 0 0 0 0 0 0 0 0 0 0 0 1 1 1 0 0 0 0 0 0 0 0 0 0 0 0 0 0 0 0 0 0 0 0 0 0 0 0 0 0
1 1 0 0 0 0 0 0 0 0 0 0 0 0 0 1 1 0 0 1 2 3 2 1 0 0 0 0 0 0 0 0 0 0 0 0 0 0 0 0 0 0 0 0 0 0 0 0 0
0 0 0 0 0 0 0 0 0 0 0 0 0 0 0 1 2 1 2 3 4 5 3 1 1 1 1 1 1 0 0 0 0 0 0 0 0 0 0 0 0 0 0 0 0 0 0 0 0
0 0 0 0 0 0 0 0 0 0 0 0 1 1 1 2 3 4 6 7 8 7 4 3 3 3 3 4 3 1 0 0 0 0 0 0 0 0 0 0 0 0 0 0 0 0 0 0 0
0 0 0 0 0 0 0 0 1 1 1 2 3 4 3 4 6 9 10 10 10 9 7 5 5 5 5 5 4 2 1 0 0 0 0 0 0 0 0 0 0 0 0 0 0 0 0 0 0
0 0 0 0 0 0 0 1 2 3 3 5 7 6 5 7 11 13 12 11 12 12 9 6 6 6 6 6 4 3 1 1 0 0 0 0 0 0 0 0 0 0 0 0 0 0 0 0 0
0 0 0 0 0 0 0 1 2 5 6 7 7 7 8 9 12 13 12 13 15 13 9 6 6 6 7 6 4 3 3 2 1 0 0 0 0 0 0 0 0 0 0 0 0 0 0 0 0
0 0 0 0 0 0 0 0 1 5 8 8 7 8 11 15 19 19 19 19 18 14 9 6 6 6 6 5 4 4 5 3 1 0 0 0 0 0 0 0 0 0 0 0 0 0 0 0 0
0 0 0 0 0 0 0 0 0 3 7 8 8 10 19 29 33 31 29 28 23 17 11 8 7 7 6 5 5 5 5 3 1 0 0 0 0 0 0 0 0 0 0 0 0 0 0 0 0
0 0 0 0 0 0 0 0 1 3 7 9 12 20 34 43 41 35 32 30 26 19 15 12 9 8 7 7 6 6 5 3 1 0 0 0 0 0 0 0 0 0 0 0 0 0 0 0 0
0 0 0 0 0 0 0 0 1 3 5 9 17 33 47 48 39 31 27 26 24 21 18 14 11 10 9 9 7 5 4 3 1 0 0 0 0 0 0 0 0 0 0 0 0 0 0 0 0
0 0 0 0 0 0 0 0 1 3 5 10 21 37 47 45 34 27 24 22 22 21 18 15 12 12 11 10 7 5 5 4 2 1 0 0 0 0 0 0 0 0 0 0 0 0 0 0 0
0 0 0 0 0 0 0 0 1 3 6 11 21 30 36 35 30 25 22 22 21 19 16 13 12 12 11 10 8 6 5 4 3 1 0 0 0 0 0 0 0 0 0 0 0 0 0 0 0
0 0 0 0 0 0 0 0 1 4 7 11 15 21 24 25 25 23 20 20 20 17 14 12 11 11 11 10 8 6 6 5 3 1 0 0 0 0 0 0 0 0 0 0 0 0 0 0 0
0 0 0 0 0 0 0 1 3 5 7 8 11 14 17 18 19 18 17 16 16 15 14 13 11 10 10 9 7 6 6 5 3 2 0 0 0 0 0 0 0 0 0 0 0 0 0 0 0
0 0 0 0 0 0 0 1 3 6 6 7 10 12 13 13 12 12 12 12 11 12 14 13 11 10 9 8 7 6 5 4 3 1 0 0 0 0 0 0 0 0 0 0 0 0 0 0 0
0 0 0 0 0 0 0 1 4 7 8 9 11 12 12 11 9 8 9 10 10 10 11 9 8 8 8 7 6 5 4 3 2 1 0 0 0 0 0 0 0 0 0 0 0 0 0 0 0
0 0 0 0 0 0 0 1 4 8 9 10 11 11 11 11 11 10 11 11 11 10 8 6 5 5 5 5 5 4 3 3 2 1 0 0 0 0 0 0 0 0 0 0 0 0 0 0 0
0 0 0 0 0 0 0 1 3 5 6 7 8 10 10 12 16 17 15 15 14 11 8 6 4 4 5 5 4 2 2 3 2 1 0 0 0 0 0 0 0 0 0 0 0 0 0 0 0
0 0 0 0 0 0 0 0 1 1 2 3 5 8 11 16 22 22 20 18 16 12 10 9 6 5 6 5 3 1 2 3 2 1 0 1 1 1 0 0 0 0 0 0 0 0 0 0 0
0 0 0 0 0 0 0 0 0 0 1 2 4 8 14 21 24 24 21 18 14 11 9 8 7 7 6 5 3 1 1 2 1 0 0 1 1 1 0 0 0 0 0 0 0 0 0 0 0
0 0 0 0 0 0 0 0 0 0 1 2 5 11 18 22 23 21 19 13 9 8 7 6 7 7 6 5 4 2 1 1 0 0 0 0 0 0 0 0 0 0 0 0 0 0 0 0 0
0 0 0 0 0 0 0 0 0 0 0 1 4 11 17 21 20 18 14 10 7 6 5 4 5 5 5 4 4 3 3 2 1 0 0 0 0 0 0 0 0 0 0 0 0 0 0 0 0
0 0 0 0 0 0 0 0 0 0 0 0 2 7 14 18 17 15 11 8 8 7 5 4 4 4 4 3 3 4 5 5 3 1 0 0 0 0 0 0 0 0 0 0 0 0 0 0 0
0 0 0 0 0 0 0 0 0 0 0 1 3 6 12 16 16 12 9 7 7 8 7 6 6 6 5 4 3 4 6 6 4 1 0 0 0 0 0 0 0 0 0 0 0 0 0 0 0
0 0 0 0 0 0 0 0 0 0 1 2 4 7 11 14 14 10 5 4 5 6 8 8 7 6 6 5 4 5 6 6 4 1 0 0 0 0 0 0 0 0 0 0 0 0 0 0 0
0 0 0 0 0 0 0 0 0 0 2 3 5 7 9 12 12 8 3 1 2 3 6 7 5 4 4 5 5 5 5 5 3 1 0 0 0 0 0 0 0 0 0 0 0 0 0 0 0
0 0 0 0 0 0 0 0 0 0 2 3 4 5 6 9 10 6 2 1 1 2 3 4 2 1 2 3 4 4 4 4 3 1 0 0 0 0 0 0 0 0 0 0 0 0 0 0 0
0 0 0 0 0 0 0 0 0 0 2 2 2 2 4 6 6 3 1 0 0 1 2 2 1 0 1 1 2 2 2 2 2 1 0 0 0 0 0 0 0 0 0 0 0 0 0 0 0
0 0 0 0 0 0 0 0 0 0 1 2 1 2 3 3 2 1 0 1 1 1 2 2 1 0 0 0 1 1 1 1 1 0 0 0 0 0 0 0 0 0 0 0 0 0 0 0 0

GEFSSGP_con_probscp_156.txt.gz
Probability
5 8 10 10 6 2 0 0 0 0 1 1 0 0 0 0 0 0 0 0 0 0 0 0 0 0 1 1 1 1 1 1 0 0 0 0 0 0 0 0 0 0 0 0 0 0 0 0 0
6 8 9 7 3 1 0 0 0 0 1 1 0 0 0 0 0 0 0 0 0 0 0 0 0 0 0 0 0 0 0 0 0 0 0 0 0 0 0 0 0 0 0 0 0 0 0 0 0
4 5 4 2 1 0 0 0 0 0 1 1 0 0 0 0 0 0 0 0 0 0 0 0 0 0 0 0 0 0 0 0 0 0 0 0 0 0 0 0 0 0 0 0 0 0 0 0 0
1 1 1 0 0 0 0 0 0 0 0 0 0 0 1 1 0 0 0 0 0 0 0 0 0 0 0 0 0 0 0 0 0 0 0 0 0 0 0 0 0 0 0 0 0 0 0 0 0
0 0 0 0 0 0 0 0 0 0 0 0 0 1 2 3 2 1 1 0 0 0 0 1 1 1 1 0 0 0 0 0 0 0 0 0 0 0 0 0 0 0 0 0 0 0 0 0 0
0 0 0 0 0 0 0 0 0 0 0 0 0 2 5 8 7 5 3 1 0 0 1 2 2 2 2 1 0 0 0 0 0 0 0 0 0 0 0 0 0 0 0 0 0 0 0 0 0
0 0 0 0 0 0 0 0 0 0 0 0 0 3 10 16 15 10 6 2 1 0 1 2 2 3 2 1 0 0 0 0 0 0 0 0 0 0 0 0 0 0 0 0 0 0 0 0 0
0 0 0 0 0 0 0 0 0 1 1 1 1 5 16 27 24 16 11 7 4 2 2 2 2 2 2 1 0 0 0 0 0 0 0 0 0 0 0 0 0 0 0 0 0 0 0 0 0
0 0 0 0 0 0 0 0 0 1 3 3 4 9 24 37 36 26 19 14 9 6 3 3 3 2 1 1 2 1 0 0 0 0 0 0 0 0 0 0 0 0 0 0 0 0 0 0 0
0 0 0 0 0 0 0 0 0 1 3 4 9 19 34 45 45 37 26 18 13 9 5 4 3 3 2 2 4 4 2 0 0 0 0 0 1 0 0 1 0 0 0 0 0 0 0 0 0
0 0 0 0 0 0 0 0 0 0 2 4 13 29 42 48 47 38 27 19 15 12 8 4 4 4 3 4 6 5 3 1 1 1 0 0 0 0 0 0 0 0 0 0 0 0 0 0 0
0 0 0 0 0 0 0 0 0 0 2 5 16 32 43 45 40 30 22 18 18 17 13 7 5 6 7 8 7 6 5 4 3 2 1 0 0 1 1 1 0 0 0 0 0 0 0 0 0
0 0 0 0 0 0 0 0 0 1 4 9 18 27 34 35 31 23 19 19 22 24 20 14 10 10 13 13 10 7 7 6 5 3 2 1 1 2 2 1 0 0 0 0 0 0 0 0 0
0 0 0 0 0 0 0 0 0 1 6 13 18 20 23 27 26 24 22 22 24 27 26 20 15 13 15 14 11 7 6 6 5 3 2 1 1 2 2 1 0 0 0 0 0 0 0 0 0
0 0 0 0 0 0 0 0 1 3 8 13 15 14 17 22 25 27 27 26 26 27 26 21 15 13 13 12 9 5 4 4 3 2 1 1 0 1 1 0 0 0 0 0 0 0 0 0 0
0 0 0 0 0 0 0 1 3 5 8 11 12 11 14 18 21 25 28 27 27 26 23 17 12 11 13 11 8 7 5 4 3 1 0 0 0 0 0 0 0 0 0 0 0 0 0 0 0
0 0 0 0 0 0 0 1 3 6 8 9 10 10 12 13 16 21 25 26 26 24 21 16 11 10 12 11 10 10 8 6 3 1 0 0 0 0 0 0 0 0 0 0 0 0 0 0 0
0 0 0 0 0 0 0 1 3 5 7 8 10 12 12 14 18 22 26 26 25 24 21 17 14 12 12 13 12 12 9 6 3 2 1 0 0 0 0 0 1 0 0 0 0 0 0 0 0
0 0 0 0 0 0 0 0 2 6 7 7 10 12 13 18 24 28 31 30 28 26 23 19 16 17 17 17 15 12 8 5 3 2 1 0 0 0 0 0 0 0 0 0 0 0 0 0 0
0 0 0 0 0 0 0 0 2 6 7 8 8 9 13 20 28 34 37 35 31 29 25 20 18 20 22 21 17 12 8 6 4 3 1 0 0 0 0 0 0 0 0 0 0 0 0 0 0
0 0 0 0 0 0 0 1 2 5 6 6 5 6 11 21 30 35 36 34 30 27 22 17 16 18 21 21 18 13 11 9 6 4 3 1 0 0 0 0 0 0 0 0 0 0 0 1 1
0 0 0 0 0 0 0 1 2 2 3 3 3 6 13 22 29 32 31 29 25 21 16 13 13 15 16 17 16 14 13 11 10 8 5 2 1 0 0 0 0 0 1 0 0 0 0 1 1
0 0 0 0 0 0 0 0 0 0 1 2 4 8 14 22 26 27 26 23 20 15 11 9 10 12 13 13 13 12 12 12 11 10 6 3 1 0 0 1 1 0 1 1 1 0 1 2 3
0 0 0 0 0 0 0 0 0 0 0 1 4 9 14 19 23 24 23 20 16 11 8 8 10 11 12 11 10 10 10 10 10 9 8 5 2 1 1 2 2 1 1 1 1 1 1 3 4
0 0 0 0 0 0 0 0 0 0 0 1 3 8 13 17 19 22 22 19 15 10 7 8 10 11 10 10 9 8 9 9 9 9 9 7 4 2 2 3 2 1 1 1 2 3 3 3 4
0 0 0 0 0 0 0 0 0 0 0 1 4 9 14 15 17 20 21 18 15 11 8 8 9 10 9 8 6 6 7 7 7 8 9 7 4 2 2 2 1 1 0 1 4 6 5 6 6
0 0 0 0 0 0 0 0 0 0 1 3 6 10 12 13 14 16 16 14 12 10 7 6 6 8 8 6 4 4 5 6 6 6 6 5 4 3 1 1 0 0 0 2 5 7 8 9 10
0 0 0 0 0 0 0 0 1 1 3 6 8 9 9 9 10 10 9 9 8 9 7 6 5 7 7 6 4 4 5 5 4 4 4 4 3 3 2 1 1 1 1 2 4 7 8 9 10
0 0 0 0 0 0 0 1 2 3 6 9 9 8 7 7 6 5 5 6 6 8 9 8 7 6 6 7 5 4 5 5 4 3 3 3 3 3 3 3 4 3 2 3 3 4 5 6 8
0 0 0 0 0 0 0 1 2 4 7 11 11 9 8 8 6 4 4 5 5 8 10 9 7 6 6 7 6 5 5 5 4 3 3 3 3 3 3 4 5 4 2 2 2 2 2 5 7

GEFSSGP_con_probscp_162.txt.gz
Probability
6 16 37 46 32 11 2 0 0 0 0 0 0 0 0 0 0 0 0 0 0 0 0 0 0 0 0 0 0 0 0 0 0 0 0 0 0 0 0 0 0 0 0 0 0 0 0 0 0
9 19 35 37 22 6 1 0 0 0 0 0 0 0 0 0 0 0 0 0 0 0 0 0 0 0 0 0 0 0 0 0 0 0 0 0 0 0 0 0 0 0 0 0 0 0 0 0 0
13 21 29 24 10 1 0 0 0 0 0 0 0 0 0 0 0 0 0 0 0 0 0 0 0 0 0 0 0 0 0 0 0 0 0 0 0 0 0 0 0 0 0 0 0 0 0 0 0
13 17 18 11 3 0 0 0 0 0 0 0 0 0 0 0 1 1 1 1 1 1 0 0 0 0 0 0 0 0 0 0 0 0 0 0 0 0 0 0 0 0 0 0 0 0 0 0 0
6 7 5 2 0 0 0 0 0 0 0 0 1 2 1 2 3 3 1 2 4 4 2 0 0 0 0 0 0 0 0 0 0 0 0 0 0 0 0 0 0 0 0 0 0 0 0 0 0
1 1 0 0 0 0 0 0 0 0 0 1 2 4 3 5 6 4 3 4 8 9 5 1 0 0 0 0 0 0 0 0 0 0 0 0 0 0 0 0 0 0 0 0 0 0 0 0 0
0 0 0 0 0 0 0 0 0 0 0 1 3 6 9 10 9 6 5 7 12 14 10 4 1 0 0 0 0 0 0 0 0 0 0 0 0 0 0 0 0 0 0 0 0 0 0 0 0
0 0 0 0 0 0 0 0 0 0 0 1 3 10 17 17 12 8 8 11 15 16 11 5 2 1 1 0 0 0 0 0 0 0 0 0 0 0 0 0 0 0 0 0 0 0 0 0 0
0 0 0 0 0 0 0 0 0 0 2 3 8 17 25 22 17 14 13 15 18 16 13 8 5 3 1 0 0 0 0 0 0 0 0 0 0 0 0 0 0 0 0 0 0 0 0 0 0
0 0 0 0 0 0 0 0 0 1 4 9 18 28 31 27 24 22 19 18 19 18 16 14 11 8 5 3 2 1 1 0 0 0 0 0 0 0 1 1 2 1 0 0 0 0 0 0 0
0 0 0 0 0 0 0 0 0 1 5 14 27 37 39 35 32 30 26 21 22 21 20 21 20 15 11 9 6 3 2 1 0 1 2 1 1 1 2 3 3 2 1 1 0 0 0 0 0
0 0 0 0 0 0 0 0 0 2 6 15 29 39 41 39 37 36 33 28 28 28 27 28 28 23 19 16 11 7 4 3 2 3 3 3 2 3 3 3 2 2 2 1 0 0 0 0 0
0 0 0 0 0 0 0 0 1 2 6 16 28 35 38 39 41 42 41 39 38 39 38 38 37 32 28 23 17 12 9 6 5 5 4 3 3 3 2 1 1 1 1 1 0 0 0 0 0
0 0 0 0 0 0 0 0 2 4 9 17 27 32 34 41 48 51 51 49 49 49 48 46 44 39 33 26 20 15 11 9 7 6 5 3 2 1 1 0 0 0 0 0 0 0 0 0 0
0 0 0 0 0 0 0 1 3 7 11 17 26 32 38 46 55 60 59 56 54 53 52 48 43 38 31 24 19 14 11 9 8 7 5 3 1 0 0 0 0 0 0 0 0 0 0 0 0
0 0 0 0 0 0 1 2 5 9 13 19 28 38 46 52 59 63 62 58 54 52 50 43 36 32 28 22 16 12 11 10 9 8 5 2 0 0 0 0 0 0 0 0 0 0 0 0 0
0 0 0 0 0 0 1 3 6 8 13 21 32 44 53 57 61 64 62 57 53 51 48 41 33 29 26 21 16 13 12 12 11 10 6 2 0 0 0 0 0 0 0 0 0 1 1 0 0
0 0 0 0 0 0 0 2 5 7 11 20 34 49 58 62 64 64 62 57 55 54 51 43 36 30 25 21 19 17 14 13 12 11 8 4 1 1 1 2 2 1 0 0 0 1 1 0 0
0 0 0 0 0 0 0 1 3 5 8 17 35 53 62 65 67 66 62 58 57 59 56 48 40 33 27 24 24 23 17 14 12 12 10 6 2 1 2 3 3 2 1 1 0 1 1 0 0
0 0 0 0 0 0 0 2 5 7 10 16 33 52 63 66 68 68 63 59 60 62 58 50 43 35 28 26 28 26 22 17 14 14 13 9 5 3 2 3 3 2 2 2 1 0 0 0 0
0 0 0 0 0 0 0 3 8 13 14 17 27 46 62 67 68 67 63 60 61 62 57 49 42 34 27 25 26 26 23 19 16 15 16 14 9 6 4 4 5 5 5 5 3 1 0 0 0
0 0 0 0 0 0 0 3 9 14 15 16 23 40 58 67 65 63 61 60 59 57 51 44 39 33 26 23 24 24 21 18 17 17 18 17 13 10 9 9 9 8 8 7 4 2 1 0 0
0 0 0 0 0 0 0 1 6 10 13 17 24 37 54 62 60 57 57 57 55 50 44 38 35 33 28 24 23 22 21 18 17 18 19 20 17 13 11 12 11 10 9 9 8 5 3 2 1
0 0 0 0 0 0 0 1 3 6 9 17 26 37 48 53 52 51 51 52 48 43 39 35 34 32 27 22 21 20 19 18 16 16 20 22 19 14 12 12 12 11 10 12 12 9 7 5 2
0 0 0 0 0 0 0 1 3 4 6 15 25 33 38 41 44 45 47 46 42 37 35 33 31 29 24 19 18 16 15 14 14 14 17 20 18 15 13 13 14 14 13 13 14 13 10 8 6
0 0 0 0 0 0 0 2 4 5 7 12 20 26 29 31 35 38 42 42 38 33 32 30 27 24 20 17 15 13 12 11 11 12 14 15 14 13 13 15 16 15 14 14 16 15 12 10 10
0 0 0 0 0 0 0 1 5 7 8 13 18 23 26 27 27 30 35 37 33 28 27 26 24 22 19 17 14 11 12 12 10 10 11 11 10 10 12 14 13 13 12 13 15 14 12 12 14
0 0 0 0 0 0 0 1 5 7 10 14 20 24 28 27 25 27 31 31 27 22 21 24 25 24 21 18 14 12 13 14 12 10 10 9 8 9 12 12 10 9 10 11 12 11 10 11 14
0 0 0 0 0 0 0 1 3 6 10 16 22 25 27 26 26 27 29 28 24 20 22 26 28 26 23 20 17 15 16 16 15 12 10 9 8 8 10 11 10 9 9 9 8 7 7 7 8
0 0 0 0 0 0 0 0 2 4 9 16 23 26 25 24 25 28 30 28 23 22 26 29 28 25 23 21 19 18 17 17 15 13 11 10 8 7 8 9 11 11 10 8 6 4 4 3 3

GEFSSGP_con_probscp_168.txt.gz
Probability
3 3 2 1 0 0 0 0 0 0 0 0 0 0 0 0 0 0 0 0 1 3 3 3 2 1 0 0 0 1 2 2 1 0 0 0 0 0 0 0 0 0 0 0 0 0 0 0 0
4 4 3 1 0 0 0 0 0 0 0 0 0 0 0 0 0 0 0 0 2 3 3 3 3 1 1 0 0 0 1 1 0 0 0 0 0 0 0 0 0 0 0 0 0 0 0 0 0
3 3 3 1 0 0 0 0 1 1 0 0 0 0 0 1 2 1 1 0 1 3 3 3 3 3 2 1 0 0 0 0 0 0 0 0 0 0 0 0 0 0 0 0 0 0 0 0 0
1 1 1 0 0 0 0 1 2 2 1 0 0 0 0 2 4 4 3 2 2 3 3 3 4 3 3 2 1 0 0 0 0 0 0 0 0 0 0 0 0 0 0 0 0 0 0 0 0
0 0 0 0 0 0 0 1 3 4 2 1 0 0 1 4 8 8 5 4 5 6 4 4 5 4 3 3 1 0 0 0 0 0 0 0 0 0 0 0 0 0 0 0 0 0 0 0 0
0 0 0 0 0 0 0 1 3 4 4 2 2 1 3 8 13 11 8 6 7 7 5 4 5 5 4 3 2 1 1 0 0 0 0 0 0 0 0 0 0 0 0 0 0 0 0 0 0
0 0 0 0 0 0 0 1 2 2 3 4 5 4 6 14 18 16 13 10 9 8 6 4 5 5 4 3 3 3 2 1 0 0 0 0 0 0 0 0 0 0 0 0 0 0 0 0 0
0 0 0 0 0 0 0 1 1 1 2 4 6 7 10 18 24 25 21 17 13 11 9 7 6 6 5 3 3 3 3 2 0 0 0 0 0 0 0 0 0 0 0 0 0 0 0 0 0
0 0 0 0 0 0 0 1 2 4 5 7 9 11 15 24 32 34 30 24 19 15 12 11 9 7 6 4 3 3 2 1 0 0 0 0 0 0 0 0 0 0 0 0 0 0 0 0 0
0 0 0 0 0 1 1 2 4 9 11 12 15 17 20 29 37 39 35 29 23 17 13 11 10 8 6 5 4 2 1 0 0 1 1 1 1 0 0 0 0 0 0 0 0 0 0 0 0
0 0 0 0 1 3 4 4 7 11 15 18 20 20 20 26 34 37 36 32 26 20 14 11 9 7 6 6 5 3 1 1 1 2 2 2 2 1 0 0 0 0 0 0 0 0 0 0 0
0 0 0 1 2 4 5 6 8 12 17 22 25 24 22 22 26 31 32 30 26 22 18 13 8 6 5 5 5 3 2 2 3 3 3 3 3 2 0 0 0 0 0 0 0 0 0 0 0
0 0 0 1 2 3 4 7 10 16 22 27 29 29 26 22 23 27 29 29 27 25 22 16 11 9 8 7 5 3 1 2 3 3 3 3 2 1 0 0 0 0 0 0 0 0 0 0 0
0 0 0 1 1 1 3 6 11 19 26 31 31 28 26 25 26 29 32 32 29 27 24 19 15 12 11 8 5 2 1 2 2 2 3 3 1 0 0 0 0 0 0 0 0 0 0 0 0
0 0 0 0 0 0 1 5 12 21 31 36 34 29 26 28 33 37 37 35 32 30 27 22 18 15 13 9 5 2 1 2 3 3 3 2 1 0 0 0 0 0 0 0 0 0 0 0 0
0 0 0 0 0 0 1 5 12 22 34 41 40 37 34 36 42 43 41 37 34 33 32 27 22 19 15 11 7 4 3 3 3 3 2 1 0 0 0 0 0 0 0 0 0 0 0 0 0
0 0 0 0 0 0 2 5 10 21 35 43 45 45 44 46 49 48 44 40 37 35 32 27 23 20 16 12 8 6 4 4 4 3 1 0 0 0 0 0 0 0 0 0 0 0 0 0 0
0 0 0 0 0 1 3 5 10 21 35 46 48 50 51 52 52 51 48 44 39 35 32 27 22 18 14 10 7 6 6 6 5 3 1 0 0 0 0 0 0 0 0 0 0 0 0 0 0
0 0 0 0 0 1 3 6 11 21 37 49 53 54 53 52 51 53 52 48 43 37 33 27 22 16 12 8 6 5 5 6 5 3 1 1 0 0 0 0 0 0 0 0 0 0 0 0 0
0 0 0 0 0 1 3 5 9 19 34 48 56 56 52 50 50 51 53 52 46 38 31 25 20 16 12 8 6 5 4 3 3 3 3 2 1 0 0 0 0 0 0 0 0 0 0 0 0
0 0 0 0 0 1 2 2 6 15 30 44 52 53 52 50 49 48 51 51 45 36 28 23 19 16 13 10 8 7 5 2 2 2 3 3 2 1 0 0 0 0 0 0 0 0 0 0 0
0 0 0 0 0 0 1 1 3 13 28 41 46 49 50 49 47 46 46 44 40 33 27 23 20 17 14 12 11 9 6 3 2 2 3 3 3 2 1 0 0 0 0 0 0 0 0 0 0
0 0 0 0 0 0 0 0 2 10 24 35 41 44 47 45 43 42 41 37 32 28 24 21 18 15 13 12 11 9 6 3 1 1 3 3 3 3 2 1 0 0 0 0 0 0 0 0 0
0 0 0 0 0 0 0 0 1 7 17 28 35 39 40 39 38 38 36 31 26 24 22 18 15 13 12 11 10 8 5 2 1 0 2 3 3 3 3 2 0 0 0 0 0 0 0 0 0
0 0 0 0 0 0 0 0 1 5 13 24 32 34 33 32 33 35 33 28 24 21 19 16 13 12 11 11 10 8 5 2 1 0 1 2 3 3 3 3 1 0 0 0 0 0 0 0 0
0 0 0 0 0 0 0 1 3 9 15 25 33 34 31 28 31 33 30 25 20 16 14 14 13 11 9 9 9 7 5 2 1 1 1 3 4 3 3 2 1 0 0 0 0 0 0 0 0
0 0 0 0 0 0 0 1 6 12 18 26 33 34 31 29 31 30 25 21 16 12 12 12 12 8 6 6 6 6 5 3 2 2 3 3 4 4 3 1 0 0 0 1 0 0 0 0 0
0 0 0 0 0 0 0 1 5 11 18 25 32 34 32 31 31 26 21 18 16 13 11 10 8 6 4 4 6 7 6 3 3 3 3 3 4 5 4 2 0 0 0 0 0 0 0 0 0
0 0 0 0 0 0 0 1 4 9 16 24 31 35 34 31 29 23 19 19 19 16 11 8 7 5 4 4 5 7 7 4 3 3 3 3 3 4 4 2 1 0 0 0 0 0 0 0 0
0 0 0 0 0 0 0 1 4 8 15 23 32 36 34 31 27 21 19 21 22 18 12 9 8 7 5 4 4 5 6 4 3 3 3 3 3 3 3 3 2 1 0 0 0 0 0 0 0

GEFSSGP_con_probscp_174.txt.gz
Probability
0 0 0 0 0 0 0 0 0 0 0 0 0 0 0 0 0 0 0 0 0 0 0 0 0 0 0 1 2 2 2 1 0 0 0 0 0 0 0 0 0 0 0 0 0 0 0 0 0
0 0 0 0 0 0 0 0 0 0 0 0 0 0 0 0 0 0 0 0 0 0 0 0 0 0 0 0 1 1 1 0 0 0 0 0 0 0 0 0 0 0 0 0 0 0 0 0 0
0 0 0 0 0 0 0 0 0 0 0 0 0 0 0 0 0 0 0 1 1 1 0 1 1 1 0 0 0 0 0 0 0 0 0 0 0 0 0 0 0 0 0 0 0 0 0 0 0
0 0 0 0 0 0 0 0 0 0 0 0 0 0 0 0 0 1 2 3 3 1 0 1 2 2 1 0 1 1 1 0 0 0 0 0 0 0 0 0 0 0 0 0 0 0 0 0 0
0 0 0 0 0 0 0 0 0 0 0 0 0 0 0 0 1 3 5 6 5 3 1 1 3 2 1 0 1 2 1 0 0 0 0 0 0 0 0 0 0 0 0 0 0 0 0 0 0
0 0 0 0 0 0 0 0 0 1 1 1 1 1 0 0 2 6 7 7 5 3 1 2 3 2 1 1 2 2 1 0 0 0 0 0 0 0 0 0 0 0 0 0 0 0 0 0 0
0 0 0 0 0 0 1 1 1 2 3 3 3 2 1 2 4 6 7 6 3 1 1 2 2 1 1 2 2 2 1 0 0 0 0 0 0 0 0 0 0 0 0 0 0 0 0 0 0
0 0 0 0 0 1 2 2 2 4 6 5 4 3 4 6 8 8 8 6 3 0 0 1 1 1 1 2 2 2 1 0 0 0 0 0 0 0 0 0 0 0 0 0 0 0 0 0 0
0 0 0 0 0 1 2 3 4 7 10 8 5 6 10 14 15 13 10 7 3 1 0 0 1 2 2 3 3 2 1 0 0 0 0 0 0 0 0 0 0 0 0 0 0 0 0 0 0
0 0 0 0 0 1 3 4 6 10 13 11 11 15 21 23 21 16 11 6 3 2 1 1 2 2 2 3 3 1 1 0 1 1 1 1 1 0 0 0 0 0 0 0 0 0 0 0 0
0 0 0 0 0 1 3 6 8 10 11 13 19 27 31 28 22 15 9 4 2 2 3 3 3 3 2 3 2 1 1 1 2 2 2 2 1 0 0 0 0 0 0 0 0 0 0 0 0
0 0 0 0 0 1 4 7 9 9 8 13 24 34 35 28 20 14 8 3 1 2 3 4 5 5 4 3 3 3 2 3 3 3 3 3 2 0 0 0 0 0 0 0 0 0 0 0 0
0 0 0 0 0 3 6 8 8 8 9 16 27 34 33 27 18 13 9 5 4 3 2 4 7 7 6 4 3 3 3 3 3 3 3 3 2 1 0 0 0 0 0 0 0 0 0 0 0
0 0 0 0 0 3 6 6 6 8 11 18 26 29 27 24 20 15 11 9 7 6 3 3 6 6 6 4 2 2 3 3 3 3 3 2 2 1 0 0 0 0 0 0 0 0 0 0 0
0 0 0 0 0 1 3 3 3 8 12 16 21 23 21 21 20 16 14 12 9 7 5 3 4 5 5 4 1 1 1 2 2 2 1 1 1 0 0 0 0 0 0 0 0 0 0 0 0
0 0 0 0 0 0 1 1 3 7 11 14 18 20 20 19 17 15 14 13 11 9 7 5 5 4 3 2 0 0 0 1 1 1 0 0 0 0 0 0 0 0 0 0 0 0 0 0 0
0 0 0 0 0 0 1 2 3 6 9 12 15 19 20 19 16 16 15 14 13 10 7 6 5 3 1 0 0 0 0 0 0 0 0 0 0 0 0 0 0 0 0 0 0 0 0 0 0
0 0 0 0 0 0 1 3 3 4 6 9 12 16 19 19 18 18 18 17 15 11 6 5 4 3 2 1 1 1 1 1 1 0 0 0 0 0 0 0 0 0 0 0 0 0 0 0 0
0 0 0 0 0 1 2 3 3 3 4 6 9 13 17 19 21 22 22 21 18 13 9 7 7 7 6 5 4 3 2 2 2 1 0 0 0 0 0 0 0 0 0 0 0 0 0 0 0
0 0 0 0 0 1 2 2 2 2 3 5 8 12 18 22 25 26 24 22 20 17 14 11 10 11 10 7 6 3 2 2 2 1 0 0 0 0 0 0 0 0 0 0 0 0 0 0 0
0 0 0 0 0 0 1 1 1 2 3 4 7 14 20 24 27 27 25 22 19 18 16 13 10 9 8 6 5 3 2 1 1 0 0 0 0 0 0 0 0 0 0 0 0 0 0 0 0
0 0 0 0 0 0 0 0 1 2 3 4 8 14 20 23 25 26 25 21 17 16 15 11 7 5 5 4 4 3 3 2 1 0 0 0 0 0 0 0 0 0 0 0 0 0 0 0 0
0 0 0 0 0 0 0 0 1 2 3 5 7 12 17 21 23 25 23 19 15 13 13 10 6 3 3 3 3 3 3 2 1 0 0 0 0 0 0 0 0 0 0 0 0 0 0 0 0
0 0 0 0 0 0 0 0 0 1 2 5 8 9 12 18 23 24 21 18 13 10 10 8 4 2 1 1 2 3 2 1 0 0 0 0 0 1 0 0 0 0 0 0 0 0 0 0 0
0 0 0 0 0 0 0 0 0 0 1 5 8 9 9 15 20 22 20 16 12 8 7 5 2 1 0 1 2 3 2 1 1 0 0 0 0 0 0 0 0 0 0 0 0 0 0 0 0
0 0 0 0 0 0 0 0 1 1 2 5 9 9 9 12 16 18 18 15 10 6 5 4 2 0 0 0 1 1 2 2 2 1 1 1 1 1 0 0 0 0 0 0 0 0 0 0 0
0 0 0 0 0 0 0 0 0 1 2 5 8 10 10 12 12 12 13 10 6 4 4 4 3 1 0 0 0 0 1 3 3 3 2 2 2 2 1 1 1 1 1 1 1 1 0 0 0
0 0 0 0 0 0 0 0 0 1 3 5 7 9 11 12 10 8 8 6 4 2 2 2 1 0 0 0 0 0 1 2 2 3 3 3 3 3 3 2 2 2 2 2 2 2 1 1 0
0 0 0 0 0 0 0 0 0 1 3 5 6 7 9 9 8 6 6 5 4 3 3 2 1 0 0 1 1 0 0 1 1 1 2 3 3 3 3 3 3 3 3 2 3 3 3 2 1
0 0 0 0 0 0 0 0 1 2 4 5 5 5 6 7 7 5 5 6 6 5 4 2 1 0 1 2 2 1 0 0 0 0 1 3 3 3 3 2 3 3 3 3 3 3 3 3 3